GFSNGP_925_temp_000.txt.gz
Temp
18 18 19 18 18 18 18 18 16 18 19 19 19 18 18 17 17 17 16 15 14 14 12 12 11 10 9 8 7 7 7 6 5 5 4 4 4 4 3 3 3 2 2 2
15 16 17 17 18 18 18 18 18 18 18 18 18 17 17 16 16 15 14 13 12 10 10 11 11 10 8 8 7 6 6 5 5 5 4 4 4 3 3 3 2 2 2 2
14 14 14 14 16 18 18 18 18 16 18 17 17 16 16 15 15 13 11 11 9 9 11 11 10 9 9 8 7 6 5 5 5 4 4 4 3 3 3 2 2 1 1 1
13 12 15 17 18 18 17 18 19 18 17 16 16 16 16 13 11 8 8 9 10 11 11 10 10 9 8 8 7 6 5 5 5 4 4 3 3 2 2 2 1 1 0 -0
12 14 16 17 17 17 16 17 17 16 15 15 16 16 15 9 7 9 9 9 10 10 10 10 9 8 8 7 7 6 5 5 4 4 3 3 3 2 2 1 1 0 -1 -1
12 12 13 17 16 16 16 16 15 13 12 11 14 12 9 10 8 8 10 10 10 10 10 9 9 8 7 7 7 6 5 4 4 3 3 3 2 2 1 1 0 -1 -2 -3
12 12 14 17 15 15 13 14 13 10 10 10 9 8 8 8 9 10 10 10 9 9 9 9 8 7 7 7 6 5 4 4 3 3 3 2 2 2 1 0 -1 -3 -4 -4
11 11 11 15 15 12 14 11 9 10 10 10 10 9 9 10 11 10 10 9 9 9 8 8 7 7 6 6 6 5 4 4 3 3 2 2 2 1 1 -0 -1 -3 -4 -4
14 15 17 17 14 14 11 10 11 10 10 9 9 10 10 10 11 10 9 9 8 7 7 7 7 6 6 6 5 4 3 3 3 2 2 2 1 1 -0 -1 -3 -4 -3 -3
13 15 16 15 15 13 11 9 9 8 10 9 10 10 10 10 10 9 9 8 7 6 6 6 6 5 4 4 3 3 3 3 3 2 1 1 0 -0 -1 -2 -4 -4 -4 -4
12 14 14 14 12 10 9 8 8 10 10 10 10 10 10 10 9 8 7 7 6 6 6 5 5 4 3 2 2 3 3 2 1 1 0 -0 -0 -1 -3 -4 -5 -6 -6 -6
10 13 12 12 10 10 9 9 10 9 10 10 9 10 9 8 8 7 7 6 5 5 4 4 4 3 2 1 0 0 1 1 0 -1 -0 -1 -1 -2 -3 -5 -7 -8 -9 -9
12 12 12 10 9 10 10 10 9 9 9 10 9 8 8 7 7 6 6 6 5 4 3 3 2 1 0 -2 -2 -3 -2 -2 -1 -1 -1 -2 -2 -3 -3 -4 -6 -8 -8 -9
10 9 9 10 10 9 8 9 9 9 9 8 8 7 7 6 6 6 6 5 4 3 2 2 1 0 -1 -2 -2 -3 -3 -2 -2 -2 -2 -3 -3 -4 -4 -5 -5 -5 -7 -9
10 10 10 9 9 9 9 9 9 9 9 8 7 7 6 6 5 4 3 2 1 1 2 1 0 -1 -1 -3 -3 -3 -3 -2 -4 -3 -4 -5 -5 -5 -5 -5 -5 -6 -6 -7
9 9 9 9 9 9 9 9 8 8 7 6 6 5 4 4 3 2 0 -1 -1 -1 -1 -2 -3 -2 -3 -2 -2 -2 -3 -4 -4 -4 -4 -4 -4 -5 -5 -5 -5 -6 -7 -8
8 7 8 8 8 8 7 7 6 6 4 4 3 2 1 0 -1 -0 -0 -1 -2 -3 -3 -3 -3 -2 -3 -3 -2 -2 -3 -3 -4 -3 -4 -4 -5 -5 -5 -6 -6 -6 -7 -9
8 8 7 7 7 6 6 5 4 3 3 2 0 -1 -1 -1 -0 -0 -0 -1 -2 -3 -3 -3 -3 -4 -3 -3 -3 -4 -4 -4 -4 -4 -4 -5 -5 -6 -6 -6 -6 -6 -7 -8
7 7 6 5 5 4 4 3 3 1 0 -0 -1 -1 -2 -2 -2 -1 -1 -2 -2 -3 -1 -2 -3 -3 -3 -4 -4 -4 -4 -4 -4 -4 -5 -6 -5 -6 -6 -6 -6 -7 -7 -8
6 6 5 5 4 2 2 2 1 0 0 -0 -1 -2 -2 -1 -1 -1 -1 -1 -2 -1 -2 -3 -3 -3 -4 -4 -4 -4 -5 -5 -4 -5 -5 -6 -6 -6 -6 -7 -7 -7 -7 -8
4 4 3 2 2 2 1 1 -0 -1 -0 -1 -2 -2 -2 -1 -1 -1 -1 -1 -1 -1 -2 -3 -3 -3 -3 -4 -4 -4 -5 -5 -5 -5 -5 -5 -6 -6 -6 -6 -7 -7 -7 -8
4 3 2 2 1 0 1 1 -1 -1 -1 -1 -2 -2 -2 -1 -1 -1 -1 -1 -1 -2 -2 -2 -2 -3 -3 -4 -4 -5 -5 -5 -5 -5 -5 -5 -6 -6 -6 -6 -7 -7 -7 -8
3 2 2 1 0 1 0 -0 -0 -1 -1 -2 -2 -2 -2 -2 -2 -1 -0 -1 -2 -2 -3 -3 -3 -3 -4 -5 -5 -5 -5 -5 -5 -5 -5 -5 -6 -6 -6 -7 -7 -7 -8 -8
2 2 2 1 -0 -1 -1 1 -0 -1 -2 -1 -1 -1 -2 -1 -1 -1 -1 -2 -2 -2 -2 -3 -3 -4 -4 -5 -5 -5 -5 -5 -5 -5 -5 -6 -6 -6 -7 -7 -7 -7 -8 -8
1 1 0 -1 -0 2 2 1 -1 -0 -0 -0 -1 -2 -1 -2 -1 -2 -2 -2 -2 -3 -3 -3 -3 -4 -4 -5 -5 -5 -5 -5 -5 -6 -5 -5 -6 -6 -6 -7 -7 -7 -8 -8
2 2 3 1 1 1 1 0 -1 -1 -1 -1 -1 -2 -2 -2 -1 -2 -2 -2 -2 -2 -3 -3 -3 -4 -4 -5 -5 -6 -6 -6 -6 -6 -6 -6 -6 -6 -6 -7 -7 -7 -7 -8
2 1 0 1 2 1 1 0 -1 -1 -2 -2 -2 -2 -2 -2 -2 -2 -2 -2 -2 -3 -3 -4 -4 -4 -4 -5 -5 -6 -6 -7 -7 -7 -7 -7 -7 -7 -7 -7 -7 -7 -7 -8

GFSNGP_925_temp_003.txt.gz
Temp
21 21 21 21 21 21 21 21 19 20 21 21 21 20 20 20 19 18 17 17 15 15 14 12 13 12 12 11 10 10 9 9 8 7 7 7 6 5 5 5 4 4 4 4
17 20 20 19 21 21 21 21 21 21 20 21 21 21 20 18 17 16 15 14 13 13 13 12 12 12 12 11 11 10 8 8 7 7 6 6 5 5 5 4 4 4 3 3
16 17 16 15 19 21 21 21 20 19 20 21 19 17 16 15 16 14 13 12 13 13 12 12 12 12 12 11 10 9 9 8 8 7 5 5 5 5 5 4 4 3 3 3
13 13 15 19 21 21 20 20 21 21 20 19 17 17 16 14 13 12 12 12 12 13 12 12 12 12 12 11 10 10 9 8 7 6 5 5 5 5 4 4 3 3 2 2
13 16 18 19 19 19 18 18 20 19 17 16 16 16 15 14 13 12 11 12 13 12 12 11 11 11 11 11 10 10 9 8 6 6 4 5 5 4 4 4 3 3 2 0
13 13 14 18 19 18 18 16 17 16 15 12 14 13 14 13 12 12 12 13 12 12 11 11 11 10 10 10 10 9 8 7 6 5 4 4 4 4 4 3 3 1 -0 -1
13 13 15 19 18 18 15 15 15 14 12 13 12 12 12 12 13 13 13 12 12 11 11 10 9 9 9 9 9 8 7 6 5 5 4 4 4 4 3 3 2 -1 -2 -3
13 12 13 18 17 14 16 16 14 12 12 12 12 12 12 13 13 12 12 12 11 11 10 9 9 8 8 9 9 7 6 5 5 5 5 4 4 4 3 2 1 -1 -2 -3
16 17 19 17 13 15 16 14 12 11 10 10 12 12 12 12 12 12 11 11 11 10 9 8 8 8 7 6 6 4 3 3 4 5 4 4 3 3 2 2 -0 -2 -2 -2
15 17 17 16 16 15 13 13 11 11 12 13 12 12 12 12 12 11 11 10 10 9 8 8 7 7 6 4 3 4 3 4 4 4 3 2 3 2 2 -0 -2 -2 -3 -4
16 17 17 16 14 13 13 12 11 12 13 12 12 12 12 12 11 10 10 9 8 8 8 7 7 6 5 4 3 3 2 3 3 2 2 2 2 1 -0 -2 -4 -5 -5 -6
15 16 14 13 13 14 13 12 12 12 12 12 11 12 11 11 10 9 9 8 8 8 7 7 6 5 3 3 2 1 1 2 2 1 1 0 1 0 -2 -3 -5 -6 -7 -8
15 14 11 11 12 11 13 13 12 11 11 12 11 11 10 10 9 8 8 8 7 6 6 5 4 3 2 1 -1 -1 -1 -1 0 0 0 -0 -1 -2 -2 -3 -4 -6 -7 -8
13 12 10 10 12 12 11 11 10 11 11 11 10 9 9 8 8 7 7 6 6 5 4 3 3 2 1 1 -0 -1 -2 -1 -2 -1 -1 -2 -3 -3 -3 -4 -4 -4 -6 -7
11 10 12 13 12 12 11 11 11 11 10 9 9 8 7 7 6 6 5 5 3 1 2 3 2 1 1 -0 -1 -1 -2 -2 -3 -3 -3 -3 -4 -4 -4 -4 -4 -4 -4 -5
13 13 12 11 11 11 11 11 10 10 9 8 7 6 5 5 4 4 3 3 1 -0 -1 -1 -2 -2 -0 -1 -1 0 0 -2 -3 -3 -3 -3 -4 -4 -4 -4 -4 -4 -5 -5
11 11 10 10 10 10 10 9 8 8 6 6 5 3 2 1 -0 2 1 0 0 -0 -1 -2 -3 -2 -1 -2 -1 -0 -0 -2 -3 -4 -3 -4 -4 -4 -4 -5 -5 -4 -5 -7
11 10 10 10 9 9 8 7 6 5 4 4 2 0 -0 -1 -0 -1 -1 -1 -1 -1 -1 -2 -2 -2 -2 -2 -1 -2 -3 -3 -4 -4 -4 -4 -4 -5 -5 -5 -5 -5 -5 -6
9 9 9 8 8 7 6 5 5 4 2 1 1 -0 -0 -1 -1 -1 -1 -1 -1 -1 -1 -1 -2 -3 -3 -2 -3 -3 -4 -4 -4 -3 -4 -5 -5 -5 -5 -5 -5 -5 -6 -6
8 8 8 7 6 4 4 3 3 2 2 2 1 -1 -1 -0 -1 -1 -1 -1 -1 -1 -1 -1 -2 -3 -3 -2 -4 -3 -4 -4 -4 -4 -4 -4 -5 -5 -5 -5 -6 -6 -6 -6
6 6 6 4 3 3 3 3 2 1 2 1 -1 -1 -1 -2 -2 -2 -1 1 1 -0 -1 -2 -2 -2 -2 -2 -3 -4 -4 -4 -4 -4 -4 -4 -5 -5 -5 -5 -5 -6 -6 -6
6 6 4 3 2 2 2 2 1 1 0 -0 -1 -1 -2 -1 -1 -1 -1 -1 -0 -1 -2 -2 -2 -2 -1 -2 -2 -4 -4 -4 -4 -4 -4 -4 -4 -5 -5 -5 -5 -6 -6 -6
5 5 4 3 2 2 2 1 1 1 0 -1 -1 -1 -1 -1 -1 -1 -0 -0 -1 -1 -2 -2 -2 -2 -3 -3 -4 -4 -4 -4 -4 -4 -4 -4 -5 -5 -5 -6 -6 -6 -6 -6
4 4 4 3 2 1 0 3 3 2 1 -0 -0 -1 -0 -1 -1 -1 -1 -1 -2 -2 -2 -2 -2 -3 -3 -4 -4 -4 -4 -4 -4 -4 -4 -4 -5 -5 -6 -6 -6 -6 -6 -7
4 3 2 2 2 3 4 5 4 3 2 1 1 -0 -0 -1 -2 -2 -2 -2 -2 -2 -2 -3 -3 -3 -4 -4 -4 -4 -4 -4 -5 -5 -5 -5 -5 -5 -5 -6 -6 -6 -6 -6
4 4 4 4 4 4 4 3 3 2 1 0 0 -0 -1 -1 -2 -2 -2 -2 -2 -2 -3 -3 -3 -3 -4 -4 -4 -4 -4 -5 -5 -6 -6 -6 -6 -6 -6 -6 -6 -6 -6 -7
4 4 4 4 4 4 3 3 1 0 -1 -2 -1 -1 -1 -2 -2 -2 -2 -2 -2 -2 -2 -3 -3 -3 -4 -4 -4 -4 -5 -5 -5 -6 -6 -6 -6 -7 -7 -7 -7 -7 -7 -7

GFSNGP_925_temp_006.txt.gz
Temp
21 21 22 22 22 22 21 21 19 20 21 22 21 20 18 17 17 17 16 16 15 14 14 14 13 13 13 12 12 10 9 9 9 9 8 7 6 6 5 5 5 4 4 4
18 21 21 20 20 21 21 22 21 21 20 22 19 18 17 16 16 15 15 14 14 14 13 13 13 13 12 12 12 11 10 10 9 9 8 6 6 5 5 5 4 4 4 3
16 16 16 15 18 21 21 22 21 18 20 20 18 17 17 16 15 14 14 13 13 13 13 13 12 12 12 12 12 11 11 10 8 4 4 4 5 5 5 4 4 4 3 3
14 13 16 20 21 22 20 21 21 21 20 18 17 16 17 14 13 13 13 12 13 13 13 12 12 12 11 11 10 10 11 10 6 5 5 6 5 4 4 4 4 4 3 2
13 15 17 19 20 18 17 17 20 19 17 16 16 16 15 14 13 13 13 13 13 13 12 12 12 11 10 10 10 10 10 7 6 5 6 4 4 3 4 4 4 2 1 0
12 13 14 18 20 19 19 16 17 16 15 14 15 12 13 13 13 13 13 13 13 12 12 11 10 9 9 9 9 8 6 5 5 5 5 4 4 4 4 4 3 1 -0 -2
13 13 14 19 19 18 15 15 15 14 14 13 13 11 12 13 13 13 13 13 12 12 11 10 9 9 9 8 8 7 5 5 4 3 3 4 4 4 4 3 2 -0 -1 -2
13 13 13 18 18 15 16 16 15 14 13 12 12 11 13 13 13 13 13 12 12 11 10 9 9 9 8 8 7 5 4 4 3 4 4 4 4 3 3 2 0 -1 -2 -2
15 15 18 18 16 16 14 14 13 12 12 12 12 12 13 12 13 12 12 12 11 10 9 9 9 8 8 7 6 4 4 4 4 3 4 3 3 3 2 1 -1 -2 -3 -4
16 18 18 18 18 14 14 14 13 13 12 12 12 12 12 12 12 12 11 10 10 9 9 9 8 8 6 5 5 4 3 3 3 3 3 3 2 2 1 -0 -2 -3 -4 -5
17 18 18 17 14 14 13 13 12 13 13 13 12 12 12 12 11 11 10 10 9 9 8 7 7 6 5 4 3 3 2 2 1 1 1 1 1 0 -0 -2 -3 -4 -5 -6
15 17 15 14 13 13 12 12 13 13 12 12 12 12 11 11 10 10 9 8 8 8 7 6 6 5 4 3 2 1 -0 0 0 0 0 0 0 -0 -1 -2 -3 -4 -5 -6
17 15 14 13 13 13 13 13 13 12 12 12 11 11 10 9 9 8 7 7 7 6 6 4 4 3 3 2 1 -0 -1 -2 -1 -1 -1 -1 -1 -2 -3 -3 -3 -4 -5 -6
15 14 13 13 12 13 12 12 11 12 11 11 10 9 8 8 7 6 6 6 5 5 4 3 2 3 2 -0 1 -0 -1 -1 -1 -2 -2 -2 -3 -3 -3 -4 -4 -4 -4 -5
13 13 13 13 13 13 12 12 11 11 10 10 8 8 6 6 5 5 4 3 3 2 2 2 0 -1 -1 -0 -1 -1 -1 -1 -2 -2 -3 -3 -3 -3 -4 -4 -4 -4 -4 -5
13 13 13 13 12 12 12 11 10 10 9 7 7 5 5 4 3 2 2 2 0 -1 -0 -0 -0 -1 -2 -1 -1 -1 -0 -1 -2 -2 -3 -3 -3 -4 -4 -4 -4 -4 -4 -5
12 11 12 11 11 11 10 10 9 7 6 6 5 4 2 1 0 1 1 0 -0 -1 -1 -1 -1 -2 -2 -2 -1 -1 -0 -2 -3 -2 -3 -4 -4 -4 -4 -5 -5 -5 -5 -5
13 12 11 10 10 9 8 7 6 5 5 4 3 2 1 0 -0 -0 -0 -1 -1 -1 -1 -0 -1 -2 -2 -2 -2 -2 -2 -3 -3 -3 -4 -4 -4 -4 -4 -5 -5 -5 -5 -6
11 10 9 9 8 7 6 6 5 4 4 3 2 1 1 0 -1 -1 -1 -2 -1 -1 -0 -0 -1 -2 -2 -2 -2 -3 -3 -3 -3 -4 -4 -4 -4 -4 -5 -5 -5 -5 -5 -6
9 9 8 7 6 5 4 4 3 3 3 2 2 1 -0 -0 -1 -1 -1 -2 -2 -1 -0 -1 -1 -1 -2 -2 -2 -3 -3 -3 -3 -4 -4 -4 -4 -4 -4 -5 -5 -5 -5 -5
6 6 6 5 5 4 3 3 3 2 2 2 1 -0 -1 -1 -1 -1 -1 -1 -0 -0 -1 -1 -1 -2 -2 -2 -2 -3 -3 -3 -4 -4 -4 -4 -4 -4 -4 -5 -5 -5 -5 -5
6 6 5 4 4 3 3 3 2 2 2 1 0 -1 -1 -1 -1 -1 -0 -1 -1 -1 -1 -1 -2 -2 -2 -2 -2 -2 -3 -3 -4 -4 -4 -4 -4 -4 -4 -5 -5 -5 -5 -6
5 5 4 4 3 3 3 3 2 2 1 -0 -1 -1 -0 -0 -1 -1 -1 -1 -1 -1 -2 -2 -2 -1 -2 -2 -2 -3 -3 -4 -3 -4 -4 -4 -4 -4 -4 -5 -5 -5 -6 -6
5 5 4 4 4 3 1 2 2 3 3 2 2 1 0 -1 -1 -1 -1 -1 -2 -2 -2 -2 -2 -2 -2 -3 -3 -3 -4 -4 -4 -4 -4 -4 -4 -4 -4 -4 -5 -5 -6 -6
5 4 4 3 2 2 3 3 4 4 3 3 2 1 0 -0 -1 -1 -1 -1 -2 -2 -2 -3 -2 -2 -2 -3 -3 -4 -4 -4 -4 -4 -4 -4 -4 -4 -5 -5 -5 -5 -6 -6
4 4 4 4 4 4 4 4 3 3 2 1 0 -1 -1 -1 -1 -1 -1 -2 -2 -2 -2 -2 -3 -3 -3 -3 -4 -4 -4 -4 -4 -4 -4 -5 -5 -5 -5 -5 -5 -6 -6 -6
4 4 4 4 4 4 4 4 3 1 0 -1 -1 -1 -2 -2 -2 -2 -2 -2 -2 -2 -2 -2 -2 -2 -3 -3 -3 -4 -4 -4 -4 -5 -5 -5 -6 -6 -6 -6 -6 -7 -7 -7

GFSNGP_925_temp_012.txt.gz
Temp
17 17 18 18 18 17 17 15 14 15 15 14 13 12 12 12 11 11 11 10 10 10 10 11 11 10 10 9 9 9 8 8 7 6 6 5 5 4 3 3 3 3 4 3
16 15 14 16 15 15 16 17 17 17 14 14 13 12 11 11 10 11 11 11 10 10 10 10 9 9 9 9 9 8 8 7 6 6 5 4 3 3 3 2 3 2 3 3
12 11 12 11 15 17 18 17 17 15 14 12 12 11 10 10 10 10 11 10 9 9 10 9 9 9 9 9 8 8 7 6 6 5 4 4 3 2 2 2 2 2 2 1
8 8 11 15 16 17 16 15 13 13 12 12 11 10 9 10 10 10 10 10 9 10 10 9 9 9 9 8 8 7 6 6 5 4 4 3 3 2 2 1 2 1 0 -1
8 9 12 16 16 16 16 14 13 12 11 12 10 9 10 10 10 10 11 11 10 10 10 9 9 8 8 8 7 6 6 5 4 4 3 3 3 3 2 1 1 0 -1 -2
7 8 9 13 16 15 15 11 12 12 11 11 10 7 8 10 10 11 11 11 10 10 9 8 8 8 7 6 6 5 5 4 4 3 3 3 3 2 2 2 -0 -1 -2 -3
4 5 8 11 15 15 12 12 11 11 10 9 9 8 8 9 10 11 10 10 9 8 8 8 7 7 7 6 5 5 4 4 3 2 2 2 3 2 2 -0 -1 -2 -3 -4
5 5 10 12 14 13 11 11 11 10 9 9 9 9 9 10 10 9 9 8 8 8 7 7 7 6 6 5 4 4 4 3 2 2 2 1 1 1 -0 -1 -2 -3 -4 -4
10 10 12 12 13 13 11 11 9 9 9 9 9 9 10 9 7 7 7 7 7 7 6 6 5 5 4 4 3 3 3 2 1 1 1 0 0 -0 -1 -2 -3 -3 -4 -5
11 13 12 13 13 11 11 10 9 9 9 9 9 9 8 6 6 6 6 6 6 5 5 4 4 4 3 3 3 2 2 1 1 -0 -1 -0 -1 -1 -2 -3 -3 -4 -4 -5
10 13 12 11 12 10 9 9 10 10 11 10 8 7 6 6 6 6 5 5 5 4 4 3 3 3 2 2 2 2 1 1 0 -1 -1 -1 -2 -2 -3 -3 -4 -4 -4 -5
11 12 12 11 9 10 9 10 11 10 8 8 7 6 6 5 5 5 4 4 4 3 3 2 2 1 1 1 0 -0 -1 -1 -1 -1 -2 -2 -2 -3 -4 -3 -4 -4 -4 -5
12 12 11 10 9 10 10 9 9 8 7 6 6 6 6 5 4 4 4 3 3 2 2 1 1 0 0 0 0 -1 -2 -2 -2 -1 -2 -2 -3 -3 -3 -3 -4 -4 -4 -5
12 10 10 10 9 10 10 10 8 7 7 6 6 5 5 4 4 4 3 2 2 1 1 0 -1 -1 -0 -1 -1 -1 -2 -2 -2 -2 -2 -3 -3 -3 -3 -4 -4 -4 -4 -5
10 11 10 9 10 10 9 8 6 5 5 4 5 4 4 4 3 3 2 2 1 -0 -1 -2 -2 -2 -1 -1 -1 -1 -2 -2 -2 -1 -3 -3 -3 -3 -4 -4 -4 -5 -5 -5
9 10 10 10 10 8 7 6 5 4 4 4 4 4 4 3 2 2 1 0 -1 -2 -2 -2 -2 -1 -0 -1 -1 -2 -2 -2 -2 -2 -3 -3 -3 -4 -4 -4 -5 -5 -5 -5
8 8 7 7 6 6 6 5 5 4 4 4 3 3 3 2 1 1 -0 -1 -2 -2 -2 -2 -1 -0 -1 -1 -2 -2 -2 -2 -3 -3 -4 -4 -4 -3 -4 -5 -5 -5 -5 -5
8 7 6 5 4 4 4 4 4 4 4 4 3 3 2 1 -1 -1 -1 -1 -1 -1 -1 -1 -1 -1 -1 -1 -2 -2 -2 -3 -3 -3 -3 -3 -4 -4 -4 -4 -5 -5 -5 -5
5 4 4 4 5 4 4 4 4 4 3 3 2 2 1 1 -0 -0 -0 -1 -1 -1 -1 -1 -1 -1 -1 -2 -2 -2 -2 -3 -3 -3 -3 -3 -4 -4 -4 -5 -4 -5 -5 -5
4 4 5 5 5 5 5 4 3 3 3 2 2 1 1 1 1 0 0 -1 -0 0 -1 -2 -2 -3 -2 -2 -2 -2 -3 -3 -3 -3 -3 -3 -4 -4 -4 -4 -4 -4 -5 -5
4 4 5 5 4 4 3 3 2 2 3 2 1 1 1 1 0 -0 -1 -2 -1 -1 -1 -1 -2 -3 -2 -2 -2 -2 -3 -3 -3 -3 -3 -4 -4 -4 -4 -4 -4 -4 -5 -5
4 4 4 3 3 3 3 3 3 3 2 2 1 1 0 0 1 0 -0 -1 -1 -1 -1 -1 -1 -1 -2 -2 -2 -2 -3 -3 -3 -3 -3 -4 -4 -4 -4 -4 -4 -4 -5 -5
4 3 3 3 3 3 3 3 3 2 2 2 2 2 1 -0 -1 -2 -2 -1 -1 -1 -1 -2 -2 -2 -2 -2 -3 -2 -2 -2 -3 -3 -3 -3 -4 -4 -4 -4 -4 -4 -4 -5
3 3 3 3 3 2 1 3 3 3 3 3 3 3 1 -1 -1 -1 -1 -1 -1 -1 -2 -2 -2 -2 -2 -3 -3 -3 -3 -3 -3 -3 -3 -3 -4 -4 -4 -4 -4 -4 -4 -5
3 3 3 3 2 2 3 3 3 3 3 2 2 2 1 -1 -2 -1 -1 -1 -1 -2 -2 -2 -2 -2 -3 -3 -3 -3 -3 -3 -3 -4 -4 -4 -4 -4 -4 -4 -4 -4 -5 -5
3 3 3 3 3 3 3 3 2 2 1 -0 -0 0 -0 -1 -1 -1 -1 -1 -2 -3 -3 -4 -4 -3 -3 -3 -3 -3 -3 -3 -3 -4 -4 -4 -4 -4 -4 -4 -5 -5 -5 -5
3 3 3 3 3 3 3 2 1 -1 1 0 -0 -0 -1 -1 -1 -2 -2 -3 -3 -4 -4 -4 -5 -5 -4 -4 -4 -4 -4 -3 -3 -3 -4 -4 -4 -4 -4 -4 -5 -5 -5 -6

GFSNGP_925_temp_015.txt.gz
Temp
15 14 17 18 18 15 15 14 14 14 13 14 12 11 11 10 9 9 9 10 9 9 9 10 9 9 9 9 9 9 8 8 7 6 5 5 5 4 3 3 2 2 2 2
15 13 13 16 16 14 14 15 14 14 14 13 11 10 10 10 9 9 10 11 11 10 10 9 9 9 9 9 9 8 8 7 6 6 5 4 4 3 3 2 2 1 2 2
12 10 12 12 13 14 16 16 15 13 13 11 11 11 10 9 9 9 10 10 10 9 9 9 9 9 9 8 8 8 7 7 5 5 4 4 3 3 2 1 1 0 0 -0
8 8 11 15 14 15 16 15 13 12 11 11 11 10 9 9 9 8 9 9 9 9 9 9 8 8 8 8 7 7 6 5 5 4 4 3 3 2 2 2 1 -0 -1 -1
8 9 12 16 15 14 14 14 12 11 11 11 9 9 10 8 9 8 8 9 9 9 9 8 8 8 7 7 6 6 5 5 4 4 3 3 2 2 2 1 -0 -1 -2 -2
6 8 10 13 14 14 15 11 11 11 10 9 8 7 8 8 9 9 10 9 9 9 8 8 7 7 6 6 6 5 5 4 4 3 2 2 2 2 2 1 -0 -1 -2 -3
1 5 9 11 14 15 13 12 10 10 10 8 9 8 8 7 8 10 9 9 8 8 7 6 6 6 6 5 5 4 4 4 3 2 2 2 1 1 1 -0 -1 -2 -3 -4
6 5 11 12 13 13 12 11 11 9 9 9 9 8 8 8 8 7 7 7 7 6 6 6 5 5 4 4 4 3 3 3 2 1 1 1 1 1 -1 -1 -2 -3 -4 -5
10 10 12 11 13 12 10 11 9 9 9 9 8 8 8 7 6 6 6 6 6 6 5 4 4 4 3 3 2 2 2 2 1 0 -0 -0 -0 -1 -2 -2 -3 -3 -4 -5
11 13 11 11 12 12 10 10 9 9 8 8 8 8 7 5 4 5 5 5 5 4 3 3 3 2 2 1 1 1 1 1 -0 -1 -1 -1 -1 -2 -2 -3 -3 -4 -4 -5
9 11 11 11 11 11 10 9 9 9 9 10 9 6 5 4 4 5 5 4 4 3 3 2 2 1 1 1 0 0 -0 -0 -1 -2 -2 -2 -2 -3 -3 -4 -4 -4 -4 -5
11 12 12 12 11 9 8 9 9 9 8 7 7 5 5 4 5 4 4 3 3 2 2 2 1 1 0 -0 -1 -1 -1 -1 -2 -2 -3 -2 -2 -3 -4 -4 -4 -4 -5 -5
13 11 10 11 9 9 9 9 9 7 7 6 6 6 5 4 4 3 3 2 2 1 1 0 -0 -1 -1 -1 -1 -1 -2 -2 -2 -2 -3 -3 -3 -3 -3 -4 -4 -4 -4 -5
11 10 10 9 9 9 9 7 7 6 6 6 5 5 5 4 3 3 2 2 1 0 -0 -1 -2 -2 -2 -2 -1 -1 -2 -2 -2 -2 -3 -3 -3 -3 -4 -4 -4 -5 -5 -5
10 10 11 9 8 8 7 7 6 5 4 4 4 4 4 3 2 2 2 1 0 -1 -2 -2 -2 -2 -1 -1 -1 -1 -2 -2 -2 -2 -2 -3 -4 -3 -4 -4 -4 -5 -5 -5
10 10 8 8 8 7 6 5 4 3 3 3 3 3 3 3 2 2 1 0 -1 -2 -2 -2 -2 -2 -1 -1 -2 -2 -2 -2 -2 -3 -3 -3 -4 -4 -4 -4 -5 -5 -5 -5
8 7 7 7 6 5 4 4 3 4 3 3 3 3 3 2 2 1 1 0 -1 -1 -1 -1 -1 -1 -1 -1 -2 -2 -2 -2 -3 -3 -3 -3 -4 -4 -4 -4 -4 -4 -5 -5
6 6 5 4 3 2 1 2 4 3 3 3 3 3 2 1 1 1 1 0 -0 -1 -0 0 -1 -2 -1 -1 -2 -2 -2 -3 -3 -3 -3 -4 -4 -4 -4 -4 -5 -5 -5 -5
3 3 3 3 3 3 3 3 3 3 3 3 2 2 2 1 1 1 0 -0 -1 -2 -0 -1 -1 -1 -2 -3 -3 -3 -3 -3 -3 -3 -3 -3 -4 -4 -4 -4 -5 -5 -5 -5
3 3 3 2 3 3 3 3 3 3 3 2 2 1 1 1 1 0 -0 -1 -0 0 -1 -1 -1 -1 -1 -2 -2 -3 -3 -3 -3 -3 -3 -3 -4 -4 -4 -4 -4 -4 -4 -5
2 3 3 3 3 3 4 3 3 2 3 1 0 0 -0 1 1 -0 -1 -3 1 -0 -1 -1 -1 -1 -2 -2 -2 -3 -3 -3 -3 -3 -3 -3 -4 -4 -4 -4 -4 -4 -4 -4
3 3 3 4 3 3 3 2 1 2 2 2 1 0 -1 1 1 -0 -1 -1 -0 -1 -2 -2 -2 -2 -2 -2 -2 -3 -3 -3 -3 -3 -3 -3 -4 -4 -4 -4 -4 -4 -4 -4
2 2 2 2 2 2 2 3 3 2 2 2 2 2 1 1 -0 -3 -3 -0 -1 -1 -2 -2 -2 -2 -2 -3 -3 -3 -3 -3 -3 -3 -3 -3 -3 -3 -4 -4 -4 -4 -4 -4
2 3 3 2 2 2 1 3 3 3 3 3 2 2 1 1 -1 -1 -1 -1 -1 -1 -2 -2 -3 -3 -3 -3 -3 -3 -3 -4 -3 -4 -4 -4 -4 -4 -4 -4 -4 -5 -5 -4
2 2 2 2 2 2 2 3 2 3 2 2 2 1 1 1 -1 0 -1 -1 -1 -2 -3 -3 -4 -4 -4 -4 -4 -4 -4 -4 -4 -4 -4 -4 -4 -5 -5 -5 -5 -5 -5 -5
1 0 0 0 -0 -0 -1 -1 -1 -0 0 -1 1 1 0 -0 -1 -1 -2 -2 -2 -3 -4 -4 -5 -5 -5 -6 -6 -6 -6 -6 -6 -5 -4 -4 -4 -4 -5 -5 -5 -5 -5 -5
-2 -2 -3 -3 -3 -3 -3 -3 -3 -3 -2 -2 -3 -2 -2 -2 -2 -2 -2 -2 -3 -4 -5 -6 -6 -7 -8 -8 -8 -8 -8 -8 -9 -9 -9 -7 -5 -4 -4 -4 -4 -5 -5 -5

GFSNGP_925_temp_018.txt.gz
Temp
14 13 16 17 17 14 15 14 14 14 12 14 13 12 11 9 8 8 8 8 8 8 8 9 9 9 9 9 9 8 8 8 7 6 5 5 4 4 3 3 2 2 1 1
15 12 12 15 15 14 13 14 13 13 13 13 13 9 9 9 9 8 8 8 8 9 9 9 9 9 9 8 8 8 7 7 6 5 5 4 4 3 3 2 1 0 0 0
12 10 11 11 13 13 13 13 13 13 15 10 10 10 9 8 8 8 8 9 9 9 9 9 9 8 8 8 8 7 7 6 6 5 4 4 3 3 2 2 1 0 -0 -1
8 7 11 15 14 14 14 14 13 13 13 11 11 9 9 8 8 8 8 9 8 9 9 9 8 8 8 7 7 7 6 6 5 4 4 3 2 2 2 1 0 -1 -1 -2
8 8 12 17 14 13 14 14 12 12 11 10 8 9 10 8 8 8 8 9 9 9 9 8 8 7 7 7 6 6 5 5 4 4 3 2 2 2 2 1 0 -1 -1 -2
3 8 10 13 14 14 15 12 12 11 9 9 9 8 11 8 7 8 9 9 9 8 8 7 7 6 6 6 5 5 4 4 3 3 2 2 1 1 1 0 0 -1 -2 -3
1 5 9 11 14 14 13 13 10 10 9 7 9 10 9 7 7 9 8 8 8 7 7 6 6 5 5 4 4 3 3 2 2 2 2 1 1 1 0 -0 -2 -2 -3 -3
4 4 11 11 14 13 12 12 10 9 8 9 9 7 7 7 6 6 6 6 6 6 6 5 4 4 3 3 2 2 2 1 1 1 1 1 -0 -0 -0 -2 -2 -3 -3 -4
9 10 11 11 12 12 11 11 10 9 9 10 8 7 7 6 5 5 6 6 6 5 5 4 3 3 2 2 2 1 1 0 1 -0 0 -1 -1 -1 -2 -2 -3 -3 -4 -5
11 13 10 10 10 10 11 10 11 9 8 8 8 8 7 6 4 4 5 5 5 4 3 3 2 2 1 1 1 0 -0 -0 -0 -1 -1 -2 -2 -2 -2 -3 -3 -4 -4 -5
9 10 10 10 10 10 10 9 9 8 8 9 8 7 6 4 3 4 4 4 4 3 2 2 2 1 1 0 -1 -1 -1 -1 -1 -2 -2 -3 -2 -2 -3 -3 -4 -4 -4 -5
10 12 12 12 13 11 9 9 8 8 7 6 7 5 4 3 4 4 4 3 3 2 1 1 1 0 -1 -1 -2 -2 -2 -2 -2 -2 -3 -3 -3 -3 -3 -4 -4 -4 -5 -5
13 12 10 11 10 10 9 8 8 6 6 5 5 5 4 3 4 4 3 2 2 1 1 0 -0 -1 -2 -2 -2 -1 -2 -2 -2 -2 -3 -3 -3 -3 -4 -4 -4 -4 -5 -5
10 10 11 9 10 8 8 6 6 6 5 4 4 4 3 4 3 3 2 2 1 1 0 -1 -2 -2 -2 -2 -2 -2 -2 -2 -2 -2 -2 -3 -3 -3 -4 -4 -4 -4 -4 -5
10 9 10 9 7 6 6 6 5 4 3 2 3 3 4 3 2 2 2 1 1 1 -0 -1 -2 -2 -1 -1 -1 -2 -2 -2 -2 -2 -2 -3 -3 -4 -4 -4 -5 -5 -5 -5
9 9 8 6 6 5 5 5 4 2 1 2 2 3 3 2 2 2 1 1 1 0 0 -0 -1 -1 -1 -1 -1 -2 -3 -2 -2 -2 -3 -3 -3 -3 -4 -4 -5 -5 -5 -5
9 6 5 4 3 4 3 3 3 2 1 2 3 2 1 1 1 1 1 1 1 1 0 -1 -1 -1 -1 -2 -2 -3 -2 -2 -3 -3 -3 -3 -3 -4 -4 -5 -5 -4 -4 -4
3 3 4 4 3 2 2 1 2 2 2 3 2 1 0 0 1 2 2 1 1 0 0 -0 -1 -1 -1 -2 -2 -2 -3 -3 -3 -4 -3 -3 -3 -4 -4 -4 -4 -5 -5 -5
3 3 3 3 3 2 2 1 1 1 1 1 0 0 1 1 1 1 1 1 -0 -2 1 -0 -1 -1 -1 -1 -2 -2 -3 -3 -3 -3 -4 -3 -3 -4 -4 -4 -5 -5 -5 -5
3 3 3 3 1 1 -0 1 0 1 1 1 0 0 1 2 1 1 0 -2 -1 0 -0 -0 -1 -1 -2 -2 -2 -2 -2 -3 -3 -3 -3 -4 -4 -4 -4 -4 -4 -4 -5 -5
1 1 1 0 1 1 2 2 1 2 1 1 1 1 1 1 1 -1 -3 -4 1 0 -0 -1 -2 -2 -2 -2 -3 -2 -3 -3 -3 -3 -3 -3 -4 -4 -4 -4 -4 -5 -5 -5
2 2 1 2 2 2 2 2 2 2 2 2 2 1 -1 -2 -1 -0 -1 -1 1 -0 -1 -1 -2 -2 -2 -3 -3 -3 -3 -3 -3 -3 -4 -4 -4 -4 -4 -4 -4 -4 -4 -5
2 2 2 2 2 1 2 2 2 1 1 1 1 1 0 1 0 -2 -2 1 -0 -1 -1 -1 -2 -3 -4 -4 -4 -4 -4 -4 -3 -4 -4 -4 -4 -5 -5 -5 -5 -5 -5 -5
2 1 1 0 0 0 -1 -0 0 1 1 1 1 1 0 -0 1 1 1 -0 -0 -1 -2 -2 -3 -4 -5 -5 -4 -4 -4 -4 -4 -4 -4 -4 -4 -4 -4 -5 -5 -5 -5 -5
0 -0 -1 -1 -2 -3 -3 -3 -2 -2 -2 -2 -1 -1 -1 -1 -3 -2 -2 -1 -2 -2 -2 -3 -4 -4 -5 -6 -6 -6 -6 -6 -7 -7 -7 -7 -7 -6 -5 -5 -5 -5 -5 -5
-3 -4 -4 -4 -4 -5 -5 -5 -5 -4 -4 -4 -3 -3 -3 -3 -4 -3 -3 -3 -3 -3 -3 -4 -5 -6 -6 -7 -8 -8 -8 -8 -9 -9 -10 -10 -10 -10 -10 -8 -5 -5 -4 -5
-5 -5 -6 -6 -6 -7 -7 -7 -6 -6 -6 -5 -4 -4 -3 -4 -3 -3 -3 -4 -4 -4 -5 -6 -7 -7 -8 -9 -9 -9 -9 -10 -10 -11 -12 -12 -11 -12 -12 -11 -9 -7 -5 -5

GFSNGP_925_temp_021.txt.gz
Temp
14 14 15 17 16 15 17 16 18 17 16 18 18 17 15 13 11 11 11 11 11 11 10 10 9 10 10 8 8 8 8 8 7 6 6 5 5 4 3 3 2 1 0 0
15 13 13 15 16 15 15 15 16 15 16 17 16 14 13 12 11 11 11 11 11 10 10 9 10 9 8 8 8 8 7 7 6 6 5 4 4 3 2 2 1 1 -0 -0
15 11 13 14 15 16 15 15 17 16 18 14 14 13 14 13 12 12 11 11 11 10 10 10 9 9 8 8 8 7 6 6 6 5 4 4 3 2 2 1 1 -0 -0 -1
13 10 15 17 15 15 15 15 15 15 15 14 14 12 12 12 12 11 11 11 11 10 10 8 8 8 7 8 7 6 6 5 5 4 4 3 2 2 1 1 0 -0 -1 -2
13 13 14 18 14 14 15 18 15 15 14 12 11 12 13 11 11 12 11 11 10 10 8 8 7 7 7 7 6 5 5 4 4 3 2 2 1 1 1 0 -1 -1 -2 -2
9 14 15 16 15 14 15 15 15 14 12 11 12 14 16 11 10 10 10 9 8 7 7 7 7 7 6 5 5 4 4 3 2 1 1 1 0 0 0 -0 -1 -2 -3 -3
7 12 13 13 14 14 16 17 13 12 12 11 13 14 13 11 10 10 8 7 7 6 6 6 6 5 5 4 3 3 2 2 1 1 0 0 0 0 -0 -1 -2 -3 -3 -3
7 10 14 12 14 15 15 13 13 12 12 11 13 10 10 9 8 7 6 5 6 6 5 5 5 4 3 3 2 2 1 0 0 0 0 -1 -1 -1 -1 -2 -3 -3 -3 -4
12 14 13 12 13 13 12 13 13 12 12 12 10 10 9 8 7 6 6 6 5 5 4 4 4 3 2 2 1 1 0 -0 -0 -1 -1 -1 -1 -1 -2 -3 -3 -3 -4 -4
12 14 12 12 13 12 13 13 12 12 12 10 11 10 8 7 6 6 5 4 4 4 3 3 3 2 1 1 0 -0 -1 -1 -1 -1 -1 -1 -2 -2 -2 -3 -3 -3 -3 -4
11 12 12 13 12 13 13 11 11 11 11 10 10 9 7 5 4 3 3 3 4 3 2 2 2 1 1 0 -1 -1 -2 -1 -1 -1 -1 -2 -3 -3 -3 -3 -3 -3 -3 -4
13 15 14 14 14 12 12 12 11 10 9 8 8 7 6 4 3 3 3 3 2 2 2 1 1 0 -0 -1 -2 -2 -2 -2 -1 -2 -2 -3 -3 -3 -3 -3 -3 -4 -4 -5
14 12 12 12 11 11 11 11 9 8 7 6 6 5 4 3 2 3 3 2 2 2 1 1 0 -1 -1 -2 -2 -2 -2 -2 -2 -2 -2 -2 -3 -3 -3 -3 -3 -4 -4 -4
11 10 11 11 11 9 7 6 5 5 4 4 3 2 2 2 2 2 2 2 2 1 1 -0 -1 -1 -1 -1 -1 -1 -1 -2 -2 -2 -2 -3 -3 -3 -3 -4 -3 -4 -4 -4
8 9 9 7 7 6 6 6 5 4 3 2 1 1 1 1 2 1 1 0 -0 0 0 -0 -0 -0 -1 -1 -1 -2 -2 -3 -3 -2 -3 -3 -3 -4 -4 -4 -4 -4 -5 -5
7 6 6 5 5 5 4 3 2 1 1 0 -0 1 2 2 0 -0 -0 0 -0 0 1 0 0 0 -1 -1 -2 -2 -3 -3 -2 -3 -3 -3 -4 -4 -4 -4 -4 -4 -5 -5
6 4 4 4 3 3 2 2 1 1 0 1 2 1 -0 -0 -0 0 0 -0 -0 1 1 0 1 0 -0 -1 -2 -3 -3 -3 -3 -3 -3 -3 -4 -4 -4 -4 -5 -5 -5 -5
3 3 3 2 2 2 1 1 1 1 1 1 1 -0 -1 -1 -1 -0 1 0 0 0 1 1 1 -0 -1 -1 -2 -2 -2 -2 -3 -4 -3 -4 -4 -4 -4 -4 -4 -5 -4 -5
3 3 3 3 3 3 3 2 1 1 0 -0 -1 -1 -0 -0 -0 0 0 -1 -0 -1 2 2 1 -0 -1 -1 -2 -2 -3 -3 -3 -4 -3 -4 -4 -4 -4 -5 -5 -5 -5 -5
3 2 2 1 1 1 0 0 0 0 0 0 -0 -1 -0 1 0 -1 -1 -2 0 1 1 1 -0 -1 -1 -2 -2 -3 -3 -3 -3 -3 -4 -4 -5 -5 -5 -4 -4 -5 -5 -6
2 1 1 1 1 1 1 1 0 1 1 1 0 -0 -1 0 0 -1 -2 -2 2 2 1 -0 -1 -2 -2 -2 -3 -4 -4 -3 -3 -3 -3 -4 -4 -5 -5 -5 -5 -5 -5 -5
1 1 0 0 -0 0 0 0 0 0 0 0 -0 -0 -1 -0 0 0 0 -1 1 0 -1 -1 -1 -1 -2 -3 -4 -4 -4 -4 -4 -4 -4 -4 -4 -4 -4 -4 -4 -5 -5 -5
1 1 1 0 -1 -1 -1 -1 -1 -2 -2 -2 -2 -2 -3 -3 -3 -3 -2 -1 -1 -1 -2 -2 -2 -2 -3 -4 -4 -5 -4 -4 -4 -4 -4 -4 -4 -4 -4 -5 -5 -5 -5 -5
-1 -2 -2 -2 -2 -3 -3 -4 -4 -4 -5 -4 -4 -4 -4 -4 -4 -3 -4 -4 -3 -3 -3 -2 -2 -3 -3 -4 -5 -5 -6 -6 -6 -6 -6 -7 -7 -8 -8 -7 -6 -5 -5 -5
-3 -4 -4 -4 -5 -5 -5 -6 -5 -5 -5 -5 -5 -5 -4 -4 -5 -4 -4 -4 -3 -4 -4 -4 -4 -4 -5 -5 -6 -7 -8 -8 -9 -9 -10 -10 -11 -12 -11 -11 -10 -10 -9 -7
-5 -5 -5 -6 -6 -6 -7 -8 -8 -7 -8 -8 -8 -8 -8 -7 -6 -5 -5 -5 -4 -4 -4 -4 -5 -6 -7 -8 -9 -9 -10 -10 -10 -11 -12 -13 -13 -13 -13 -12 -12 -12 -12 -10
-6 -7 -7 -7 -8 -9 -10 -11 -10 -11 -10 -10 -10 -10 -9 -9 -8 -7 -6 -6 -6 -5 -5 -7 -9 -9 -10 -11 -11 -12 -12 -12 -13 -13 -13 -14 -14 -14 -13 -13 -12 -13 -12 -10

GFSNGP_925_temp_024.txt.gz
Temp
20 20 20 22 22 21 22 23 21 24 23 25 24 24 23 22 21 20 18 18 17 17 16 14 12 11 11 11 10 10 10 10 9 8 7 7 6 6 5 4 4 4 4 3
19 18 19 19 21 22 22 23 22 23 23 25 24 22 22 20 19 18 18 17 17 16 15 14 12 11 11 10 10 9 9 9 8 7 7 6 6 5 5 4 4 4 3 2
19 17 17 16 20 22 22 22 22 21 24 24 21 21 21 21 19 18 18 17 17 16 15 14 13 10 10 10 9 9 9 8 7 6 6 5 5 5 4 4 3 3 3 2
17 13 17 22 20 20 21 22 23 22 23 22 22 20 19 19 20 19 18 17 16 15 14 13 12 11 10 10 9 8 8 7 6 6 5 5 5 4 4 4 3 3 3 2
16 18 21 23 20 19 19 22 23 22 22 22 18 17 20 18 18 18 17 16 16 15 13 12 11 10 10 9 9 8 7 6 6 5 4 4 4 4 4 3 3 3 2 1
14 17 17 21 18 18 19 20 20 20 20 18 17 18 22 19 17 16 16 15 15 13 10 10 10 9 9 9 8 7 6 5 4 4 4 4 4 3 3 3 2 2 1 0
15 16 18 20 18 18 18 20 20 18 19 18 18 21 18 17 16 15 15 14 11 10 10 9 8 7 8 7 7 6 4 4 4 3 3 3 3 2 2 2 2 1 -1 -1
13 14 16 18 17 18 20 19 18 19 19 18 19 17 16 16 16 15 14 12 11 9 9 7 7 7 8 7 5 4 3 3 3 3 2 2 2 2 2 2 1 0 -2 -3
18 20 18 18 19 19 17 17 18 18 19 17 17 17 15 14 14 12 11 9 9 7 6 5 6 6 6 5 2 3 2 3 3 2 2 2 1 1 1 1 1 0 -0 -1
16 20 19 18 18 18 18 18 18 18 18 17 16 17 15 13 12 11 10 8 5 4 4 5 5 3 3 3 2 2 2 2 2 2 2 1 1 -0 0 1 0 -0 -0 -1
16 18 18 19 19 18 18 17 17 17 17 16 16 16 15 12 11 8 5 3 3 4 6 5 3 3 3 2 1 2 2 2 1 1 1 1 1 -0 -0 -0 -0 -0 -1 -2
17 17 17 18 17 17 16 16 15 15 15 13 13 13 12 10 6 4 2 3 4 5 4 4 2 2 2 1 0 0 1 1 1 0 1 0 0 0 -1 -1 -2 -2 -3 -3
14 15 15 15 15 13 13 12 11 11 11 10 9 9 6 2 2 2 3 3 3 2 2 1 1 1 1 -0 -1 -1 -0 0 0 0 0 -0 -1 -1 -1 -1 -2 -3 -3 -4
12 13 15 12 11 10 10 8 7 6 5 4 3 2 1 0 0 1 2 2 1 0 0 0 -0 0 0 0 -0 -1 -1 -1 -1 -0 -1 -1 -1 -1 -1 -1 -2 -2 -3 -3
10 11 11 10 10 9 8 6 4 3 2 1 0 0 0 0 1 2 1 -0 -1 -0 -0 0 1 2 1 -0 -1 -0 -0 -0 -1 -2 -1 -2 -3 -3 -2 -2 -2 -2 -2 -3
8 9 9 8 5 4 3 3 2 2 2 2 2 2 3 3 3 1 1 -0 -1 1 1 2 1 1 0 0 0 0 0 -1 -2 -2 -1 -2 -2 -2 -2 -2 -2 -2 -2 -3
7 5 3 3 3 3 2 2 4 5 5 4 3 2 2 2 1 1 1 1 0 0 0 0 1 1 0 -0 -0 0 1 0 -1 -2 -1 -2 -2 -2 -2 -3 -2 -2 -3 -3
3 3 3 4 3 4 5 5 4 3 3 2 1 0 -0 -1 0 0 0 0 0 0 1 1 1 1 -1 -0 -0 -0 -0 -1 -2 -2 -2 -2 -3 -3 -3 -3 -2 -2 -2 -3
5 5 5 5 5 4 4 3 2 1 0 -0 -0 -0 -0 -0 -0 0 -0 -1 -1 -1 1 1 1 1 -1 -1 -1 -1 -2 -2 -3 -2 -2 -2 -3 -3 -3 -3 -3 -3 -3 -3
5 4 4 3 2 2 1 1 0 2 1 0 -0 -0 -0 0 -0 -0 -1 -2 -0 1 1 0 -0 -1 -1 -1 -1 -1 -1 -3 -3 -3 -3 -3 -3 -3 -3 -3 -3 -3 -3 -3
4 3 2 2 1 0 -0 -0 -0 -0 -1 -1 -1 -2 -2 -1 -1 -1 -2 1 2 1 0 -1 -1 -1 -0 -1 -1 -1 -3 -4 -4 -3 -3 -3 -3 -3 -3 -3 -3 -3 -3 -4
3 2 -0 -0 1 1 -1 -1 -2 -2 -3 -3 -3 -3 -3 -2 -2 -2 -2 -1 -1 -2 -2 -2 -2 -1 -1 -2 -2 -3 -4 -4 -3 -4 -3 -3 -3 -3 -3 -3 -4 -4 -4 -4
2 1 -0 -1 -1 -1 -2 -3 -4 -4 -4 -4 -4 -4 -4 -4 -4 -3 -3 -2 -3 -3 -4 -4 -3 -3 -3 -3 -3 -3 -4 -4 -4 -5 -5 -5 -5 -5 -5 -5 -5 -5 -5 -5
0 -0 -1 -2 -3 -2 -2 -3 -3 -3 -4 -4 -4 -5 -5 -4 -4 -4 -4 -4 -4 -4 -4 -4 -4 -4 -4 -4 -4 -4 -5 -5 -6 -7 -7 -8 -8 -8 -8 -8 -8 -8 -8 -7
-2 -2 -3 -2 -2 -2 -4 -5 -4 -4 -5 -5 -6 -6 -6 -6 -6 -7 -7 -6 -6 -6 -5 -5 -4 -4 -5 -5 -6 -7 -8 -8 -9 -10 -10 -10 -10 -10 -10 -10 -10 -10 -11 -10
-2 -2 -3 -4 -5 -5 -6 -6 -6 -6 -7 -7 -7 -8 -8 -8 -8 -8 -8 -8 -8 -7 -6 -7 -9 -9 -9 -10 -10 -11 -10 -11 -11 -11 -12 -12 -12 -12 -12 -12 -12 -12 -12 -12
-5 -5 -5 -5 -6 -7 -8 -9 -9 -9 -9 -9 -10 -10 -9 -10 -10 -10 -10 -9 -10 -10 -10 -11 -12 -13 -13 -13 -13 -13 -14 -14 -14 -15 -15 -15 -15 -14 -15 -15 -14 -14 -13 -12

GFSNGP_925_temp_027.txt.gz
Temp
25 24 24 25 25 25 25 25 24 25 26 28 28 27 27 26 25 25 25 23 23 22 21 19 18 16 14 13 10 10 11 12 12 11 10 9 9 8 8 7 6 6 6 6
22 23 23 23 24 25 25 25 26 26 26 28 26 27 26 25 25 24 24 23 22 21 20 19 18 16 14 12 11 10 11 11 11 10 9 9 8 7 7 6 6 6 6 5
21 21 21 18 21 24 25 26 25 24 26 27 26 25 24 24 24 23 23 23 22 21 20 19 17 15 13 12 11 11 11 11 10 9 8 8 7 7 7 6 6 5 5 4
19 15 16 24 24 24 24 25 26 26 26 26 26 24 23 24 23 23 22 22 22 21 19 18 17 14 13 11 12 11 11 10 9 9 8 7 7 6 6 6 6 5 5 4
16 20 23 24 24 22 22 23 25 24 24 24 24 22 23 23 22 22 22 22 21 19 18 17 16 13 12 12 11 11 10 9 9 8 7 6 6 6 6 6 5 4 4 3
17 16 16 22 21 22 22 21 23 22 22 22 22 21 23 22 21 21 20 20 19 18 17 16 14 13 11 11 10 10 9 8 7 6 6 6 6 5 5 5 5 4 4 3
17 17 20 23 21 21 20 20 21 21 22 21 21 22 21 21 21 20 20 19 18 17 16 14 13 11 10 9 9 9 7 6 5 5 5 5 5 4 4 4 4 3 2 1
17 14 16 22 21 20 21 21 22 21 21 20 20 21 21 20 19 20 19 18 16 14 14 11 9 8 7 7 7 6 4 4 5 5 5 4 4 4 4 4 3 2 1 -0
20 21 21 22 21 22 21 20 20 20 20 20 20 20 20 20 18 18 17 15 13 12 8 6 5 5 5 6 4 3 3 4 4 4 4 4 4 3 3 2 2 1 0 -0
19 22 22 22 22 21 21 20 20 20 20 20 19 19 19 19 16 15 15 13 10 7 5 2 2 3 4 4 2 3 3 3 4 4 3 3 2 3 2 0 1 0 0 0
19 21 21 21 21 19 19 19 19 19 18 18 17 17 18 17 15 13 8 7 4 2 2 4 5 4 3 2 2 2 3 3 3 2 2 3 3 3 2 1 0 0 -0 -0
18 18 17 19 18 17 17 16 15 15 16 14 14 15 15 12 9 6 3 1 2 3 3 4 3 3 3 2 2 2 2 1 2 1 1 2 2 1 1 1 0 -0 -1 -1
17 16 16 16 15 14 13 12 12 12 12 10 9 8 7 4 2 2 2 1 2 3 3 2 2 2 2 2 0 -1 -0 1 1 1 2 1 0 0 -0 1 -0 -1 -1 -2
14 15 16 14 13 12 11 9 6 5 4 4 3 2 1 1 1 2 2 2 3 3 2 2 2 2 1 1 1 0 1 1 1 2 1 0 -0 -1 -1 -0 -0 -0 -1 -2
13 13 13 13 11 9 7 6 5 4 3 3 2 2 2 2 3 4 4 3 2 2 2 2 2 3 3 3 1 1 1 2 1 0 -1 -1 -1 -1 -1 -1 -1 -1 -1 -1
11 11 9 7 6 6 6 5 5 4 5 6 5 5 5 5 5 5 4 3 2 3 3 3 2 2 2 2 3 3 3 2 1 -0 -0 -0 -1 -1 -1 -1 -1 -1 -1 -1
6 4 4 5 5 6 7 7 8 7 7 6 4 3 3 2 2 4 3 3 1 1 1 0 1 2 2 2 2 2 2 1 1 0 -0 -0 -1 -1 -1 -1 -1 -1 -2 -2
6 5 7 7 7 7 7 6 5 4 4 2 0 0 -0 -0 0 1 1 1 1 1 1 1 1 1 1 2 2 2 1 0 -0 -1 -1 -1 -1 -1 -2 -2 -2 -2 -2 -2
7 7 7 7 6 6 5 4 3 3 2 0 -0 -1 -1 -0 -0 -0 -1 -1 -1 0 3 3 2 1 1 1 0 1 0 -0 -1 -1 -1 -1 -2 -2 -2 -2 -2 -2 -2 -2
7 6 6 4 3 3 3 2 2 3 2 -1 -1 -1 -1 -1 -2 -2 -2 -1 -0 1 -0 -1 -1 -0 0 1 0 -0 -1 -1 -1 -2 -3 -2 -2 -2 -2 -2 -2 -2 -3 -3
6 5 3 3 2 0 0 -0 -1 -0 -0 -3 -2 -2 -3 -3 -2 -3 -1 -1 -0 -0 -2 -2 -2 -2 -2 -2 -2 -2 -1 -1 -2 -3 -3 -3 -3 -3 -3 -3 -3 -3 -3 -3
5 2 0 1 2 2 -0 -1 -2 -3 -3 -3 -3 -3 -3 -2 -2 -1 -2 -2 -2 -3 -3 -3 -3 -3 -4 -4 -3 -3 -3 -2 -2 -3 -3 -3 -3 -3 -4 -4 -4 -4 -4 -4
3 2 0 -0 1 1 -1 -2 -2 -3 -4 -4 -4 -4 -4 -4 -3 -3 -3 -4 -5 -5 -6 -5 -5 -5 -5 -5 -4 -4 -3 -3 -3 -3 -4 -5 -5 -5 -5 -6 -6 -6 -6 -6
3 2 1 -0 -1 -1 -0 -1 -2 -2 -4 -3 -4 -5 -5 -5 -5 -5 -6 -6 -7 -7 -7 -6 -7 -8 -7 -5 -5 -4 -4 -4 -5 -6 -6 -7 -7 -7 -7 -7 -8 -8 -8 -8
1 -0 -1 -0 0 -0 -1 -2 -2 -2 -4 -4 -5 -5 -6 -6 -7 -7 -8 -8 -8 -8 -8 -9 -10 -11 -9 -9 -9 -9 -8 -9 -9 -9 -9 -9 -9 -9 -9 -9 -10 -10 -10 -10
1 0 -1 -2 -3 -3 -4 -4 -4 -5 -6 -5 -6 -7 -7 -7 -8 -9 -9 -10 -10 -10 -10 -10 -11 -12 -12 -12 -12 -12 -12 -12 -13 -13 -12 -12 -12 -12 -12 -12 -12 -12 -12 -12
-3 -3 -2 -2 -4 -5 -6 -7 -7 -7 -7 -8 -9 -8 -8 -8 -9 -10 -10 -10 -11 -11 -11 -12 -12 -13 -14 -14 -14 -14 -14 -14 -15 -15 -15 -15 -14 -14 -15 -15 -15 -14 -14 -14

GFSNGP_925_temp_030.txt.gz
Temp
25 26 25 25 26 26 25 25 22 24 25 27 28 27 27 27 26 26 25 25 24 24 22 21 19 18 18 15 13 12 11 11 11 11 11 11 10 9 9 8 7 7 6 6
23 24 25 23 25 25 26 26 26 26 26 28 28 26 25 25 25 25 25 25 25 24 23 21 19 19 17 15 13 11 10 11 11 9 11 9 9 8 8 7 7 7 6 6
20 21 21 18 22 23 25 26 26 24 25 27 26 26 25 25 25 24 24 23 23 23 22 22 20 18 16 15 13 11 11 11 10 10 10 9 8 8 7 7 7 6 6 5
18 15 17 23 25 25 24 25 26 26 25 25 23 24 24 24 24 23 23 23 22 22 22 21 20 17 16 14 12 11 11 10 10 10 9 8 7 6 6 6 6 6 5 5
15 19 22 23 25 23 23 23 24 23 23 24 23 23 24 24 22 21 21 21 21 22 21 20 19 16 15 13 12 11 10 9 8 9 8 7 6 6 6 5 5 5 5 4
17 17 17 22 22 23 23 20 23 22 22 22 22 19 21 21 21 21 21 21 21 20 20 19 16 14 13 11 11 9 8 7 6 6 6 5 5 5 5 5 5 5 4 3
16 16 18 23 22 22 20 19 21 21 21 21 20 20 21 21 20 20 21 20 19 18 16 15 14 12 9 8 7 6 5 5 5 4 3 4 4 4 4 4 4 4 3 2
17 14 15 23 21 20 20 21 21 21 20 20 20 20 20 20 20 19 19 17 15 11 9 7 7 7 5 4 4 3 3 3 3 3 3 4 4 3 4 3 3 2 2 1
19 18 21 23 21 22 21 20 20 20 20 20 19 19 19 19 19 18 17 15 11 8 6 4 3 3 3 2 2 3 3 2 2 3 3 4 4 3 3 3 2 1 1 0
20 22 23 22 22 22 21 19 19 19 19 19 18 17 18 18 16 15 11 10 8 5 3 2 2 2 3 4 3 2 1 1 2 3 3 3 3 3 3 2 1 1 0 0
20 21 21 21 19 18 18 17 17 17 16 15 15 16 15 12 10 8 6 4 2 2 3 3 4 4 3 2 2 1 2 2 3 2 2 1 2 2 2 1 1 1 0 0
18 18 18 17 16 16 15 14 14 14 12 11 11 11 9 7 5 4 3 3 3 3 4 4 3 3 3 3 3 2 2 2 1 1 1 1 2 2 1 1 1 1 0 -0
17 16 16 15 14 13 10 10 10 9 9 8 7 6 5 4 3 2 2 2 3 3 3 3 3 3 2 2 2 1 0 0 1 1 1 1 1 1 -0 -0 -0 -0 -0 -0
15 15 14 15 12 11 8 7 6 6 5 5 4 3 3 2 2 3 3 3 4 4 4 4 3 3 3 2 2 1 1 1 1 1 1 1 0 -0 -1 -1 -1 -1 -1 -0
14 14 12 10 9 8 8 7 6 6 5 5 4 4 4 5 5 5 5 4 4 4 4 4 4 4 4 4 3 3 2 2 2 2 1 1 0 -0 -1 -1 -1 -1 -1 -1
11 10 9 8 8 8 7 7 6 6 6 6 5 4 5 5 5 5 5 4 3 2 2 1 2 3 2 2 3 3 3 3 3 2 2 0 -1 -1 -1 -1 -1 -1 -1 -1
7 6 7 7 7 8 8 7 5 5 5 4 2 0 1 1 3 2 2 1 1 1 1 1 1 1 1 1 2 2 2 2 2 2 1 -0 -1 -1 -1 -1 -2 -2 -1 -1
7 8 7 7 7 6 6 5 4 3 2 -0 -1 -1 -1 -1 -1 0 -1 -1 -1 -0 1 1 -0 0 0 0 1 1 1 1 1 1 -0 -1 -1 -1 -1 -1 -2 -2 -2 -2
7 7 7 7 7 6 5 3 3 1 -0 -1 -1 -2 -2 -2 -2 -2 -2 -2 -2 0 -2 -2 -2 -2 -2 -2 -1 -2 -2 -2 -1 -1 0 -1 -2 -2 -2 -2 -2 -2 -2 -2
7 6 5 4 3 3 1 1 2 1 -1 -2 -2 -2 -3 -2 -2 -2 -2 -1 -0 -3 -3 -4 -4 -3 -3 -3 -3 -4 -3 -3 -3 -3 -2 -2 -2 -2 -2 -2 -2 -3 -3 -3
6 4 3 1 0 -0 -0 -1 -1 -1 -2 -3 -3 -4 -4 -3 -2 -2 -2 -2 -3 -5 -5 -5 -5 -4 -5 -6 -5 -5 -4 -4 -3 -3 -2 -2 -2 -3 -3 -3 -3 -3 -4 -4
3 1 1 1 1 0 -1 -2 -3 -3 -3 -4 -4 -5 -4 -3 -3 -3 -3 -5 -6 -6 -7 -7 -7 -9 -8 -7 -6 -6 -6 -4 -4 -3 -3 -3 -3 -3 -4 -4 -5 -5 -5 -6
2 1 0 1 1 -0 -1 -2 -3 -3 -4 -3 -5 -5 -5 -5 -5 -5 -5 -7 -7 -8 -8 -8 -10 -10 -10 -9 -9 -9 -8 -7 -8 -8 -7 -6 -6 -6 -6 -6 -7 -7 -7 -8
2 2 1 -0 -0 0 0 -1 -1 -2 -3 -3 -4 -5 -6 -6 -6 -7 -8 -8 -9 -9 -9 -10 -11 -11 -12 -11 -11 -11 -11 -11 -12 -11 -10 -10 -9 -9 -9 -9 -10 -10 -10 -10
1 0 0 1 1 -0 -1 -2 -2 -3 -4 -4 -5 -6 -6 -7 -7 -8 -9 -9 -10 -10 -11 -11 -11 -12 -13 -13 -13 -13 -13 -13 -14 -14 -13 -13 -13 -12 -12 -13 -13 -13 -13 -13
1 0 -1 -2 -2 -3 -4 -4 -4 -5 -6 -5 -6 -8 -7 -8 -8 -9 -10 -10 -10 -11 -11 -12 -12 -13 -13 -14 -14 -14 -15 -15 -15 -15 -15 -15 -15 -15 -15 -15 -15 -15 -15 -14
-2 -1 -1 -2 -4 -5 -6 -6 -6 -7 -7 -8 -9 -9 -8 -9 -9 -10 -11 -11 -11 -12 -12 -13 -13 -13 -14 -14 -15 -15 -16 -16 -16 -16 -17 -17 -17 -17 -17 -17 -16 -16 -16 -15

GFSNGP_925_temp_033.txt.gz
Temp
21 22 24 24 23 22 22 20 18 19 21 21 23 22 21 21 23 24 23 21 19 19 18 18 17 16 16 15 14 13 12 11 11 11 10 9 9 8 8 8 8 7 7 7
21 21 21 21 22 21 22 22 23 22 21 22 23 21 20 21 21 21 20 19 19 20 17 16 16 16 15 14 13 13 11 11 11 10 9 8 8 7 7 7 7 7 7 6
17 17 18 15 19 20 21 22 22 21 21 19 19 20 20 20 20 19 19 19 19 19 19 18 17 17 14 12 11 11 11 10 10 10 8 8 7 6 6 7 6 6 6 6
12 13 14 18 23 22 22 20 20 19 19 19 19 18 17 17 17 17 17 17 17 17 19 19 17 15 13 12 11 11 10 10 9 8 8 6 6 6 6 5 4 4 5 5
12 12 16 19 21 22 20 19 19 18 18 18 18 17 16 17 17 17 18 17 18 19 18 16 14 12 11 10 10 10 8 7 7 6 5 5 5 5 4 3 4 4 5 5
11 12 12 16 21 21 21 15 18 17 17 17 17 13 14 18 18 17 16 12 10 11 12 11 11 11 9 7 6 5 5 4 4 3 4 4 4 4 4 3 3 3 3 4
8 9 12 19 20 21 16 14 18 17 17 17 16 14 16 17 17 15 12 9 7 6 6 5 6 6 4 4 3 3 2 2 3 3 3 3 3 4 3 3 3 3 3 2
10 11 13 19 20 17 15 17 17 17 17 16 16 16 16 16 15 12 8 6 5 4 3 3 3 3 2 2 3 4 4 3 3 2 2 2 2 3 3 3 3 3 2 2
13 12 15 19 18 17 16 15 15 15 14 14 14 14 14 12 10 8 6 4 3 3 3 3 4 4 3 3 5 4 3 2 2 1 2 2 3 3 3 3 3 2 2 1
16 19 18 17 15 15 14 13 13 12 12 12 12 10 9 8 6 4 3 3 3 3 3 3 4 3 3 3 2 2 2 2 2 2 2 2 2 2 2 2 2 1 1 1
16 17 14 14 14 13 12 12 10 10 9 10 8 8 6 4 4 4 3 3 3 3 3 3 4 3 3 3 3 2 2 2 2 2 2 2 1 1 1 1 1 1 1 0
11 14 13 12 11 11 10 9 9 8 7 7 6 5 4 3 3 3 3 3 3 3 4 3 3 3 3 3 3 2 2 2 2 1 1 1 1 1 1 1 1 0 0 -0
13 13 12 9 8 8 8 7 7 6 6 5 4 3 2 2 2 2 2 3 3 3 3 3 3 3 3 3 3 2 2 2 1 1 1 1 1 1 1 1 0 -0 -0 -1
13 13 10 10 7 7 6 5 5 4 3 3 2 2 2 3 3 3 3 4 3 3 3 3 3 3 3 3 3 3 2 2 2 1 1 1 1 1 1 0 -0 -0 0 -0
9 10 8 8 7 6 6 5 4 4 4 3 4 3 3 3 3 4 3 3 3 2 2 2 2 2 1 1 1 2 2 2 2 2 2 2 1 0 0 -0 -1 -1 -1 -1
8 8 7 7 6 6 5 4 4 4 4 2 1 1 1 2 2 1 1 0 -0 -2 -2 -1 -1 -1 -0 0 0 0 -0 0 1 1 1 0 0 0 -1 -1 -2 -2 -2 -2
6 5 5 5 5 6 5 4 4 3 1 -1 -2 -2 -2 -1 -1 -2 -2 -3 -3 -2 -1 -3 -3 -2 -2 -2 -2 -2 -2 -3 -3 -2 -2 -1 -1 -1 -2 -2 -2 -2 -2 -2
7 7 6 6 5 4 3 2 0 -1 -2 -2 -2 -2 -2 -2 -3 -3 -2 -2 -1 -2 -4 -4 -4 -4 -4 -3 -4 -5 -5 -5 -4 -4 -4 -3 -3 -2 -2 -2 -1 -2 -2 -2
7 7 6 5 4 3 2 1 -1 -2 -2 -2 -2 -2 -2 -3 -2 -2 -2 -3 -5 -5 -6 -6 -6 -6 -6 -6 -6 -6 -6 -6 -6 -5 -5 -4 -4 -4 -3 -2 -2 -2 -2 -2
4 3 2 1 1 1 -0 -1 -2 -3 -3 -3 -3 -3 -3 -3 -3 -3 -3 -6 -6 -7 -7 -7 -8 -8 -8 -8 -7 -7 -7 -7 -7 -7 -6 -5 -4 -4 -3 -3 -3 -3 -3 -3
2 1 -0 -1 -1 -1 -1 -1 -2 -3 -4 -4 -4 -4 -4 -4 -4 -4 -6 -7 -7 -8 -8 -8 -10 -10 -10 -10 -10 -10 -10 -10 -9 -9 -9 -8 -8 -5 -3 -3 -4 -4 -5 -6
1 0 -0 -1 -2 -2 -2 -3 -3 -3 -4 -5 -5 -5 -5 -5 -6 -6 -7 -8 -9 -9 -10 -10 -11 -11 -12 -12 -12 -12 -12 -12 -13 -13 -12 -11 -10 -9 -9 -8 -8 -8 -9 -9
0 0 -0 -1 -2 -2 -3 -3 -3 -3 -4 -5 -6 -6 -6 -6 -7 -8 -9 -9 -9 -10 -10 -11 -11 -12 -12 -13 -13 -14 -14 -14 -14 -15 -14 -14 -13 -12 -13 -13 -13 -12 -12 -12
-0 -0 -0 -0 -1 -2 -2 -3 -3 -4 -4 -5 -6 -6 -7 -7 -8 -9 -9 -10 -10 -11 -11 -11 -12 -13 -13 -14 -14 -15 -15 -15 -16 -16 -16 -16 -15 -15 -15 -15 -15 -15 -14 -14
-0 -0 -0 -1 -2 -3 -3 -3 -4 -5 -5 -6 -7 -7 -7 -8 -8 -9 -10 -10 -11 -11 -12 -12 -13 -13 -14 -14 -15 -15 -16 -16 -16 -17 -17 -17 -17 -17 -17 -17 -17 -16 -16 -16
-1 -3 -3 -4 -4 -5 -5 -5 -6 -7 -7 -8 -8 -8 -9 -9 -9 -10 -11 -11 -12 -12 -13 -13 -14 -14 -15 -15 -16 -16 -17 -17 -17 -18 -18 -18 -19 -19 -19 -18 -18 -17 -17 -17
-3 -3 -5 -6 -6 -7 -7 -8 -8 -8 -8 -9 -9 -9 -9 -10 -10 -11 -12 -12 -13 -13 -14 -14 -15 -15 -15 -16 -16 -17 -17 -18 -18 -18 -19 -19 -20 -20 -20 -20 -19 -19 -19 -19

GFSNGP_925_temp_036.txt.gz
Temp
20 21 22 22 22 21 20 19 17 19 18 20 21 20 21 19 21 19 18 18 17 16 15 16 16 15 15 14 14 13 11 10 10 11 10 9 9 8 7 7 7 7 7 7
20 19 20 21 20 20 20 21 19 20 20 17 18 18 17 18 18 17 17 17 17 17 15 15 15 15 15 13 11 11 10 10 10 9 9 8 7 6 6 6 6 6 6 5
17 15 17 14 17 19 20 20 21 19 19 18 17 18 18 16 16 16 16 15 15 15 15 15 16 15 14 12 10 10 10 10 9 9 8 7 6 6 4 4 5 5 6 5
12 12 13 17 19 19 17 17 17 17 17 16 16 15 14 15 15 15 16 15 14 14 15 15 14 12 10 9 9 10 9 9 8 8 6 5 4 3 3 4 4 5 4 4
12 12 15 18 20 19 18 18 18 16 17 16 15 15 15 16 14 13 12 10 10 10 9 10 10 10 9 8 8 7 6 5 5 5 3 3 3 3 3 3 3 3 3 3
10 12 12 15 19 19 17 14 17 15 16 16 15 12 13 15 11 9 8 7 7 7 7 7 7 7 6 4 4 3 3 3 3 3 3 4 3 3 3 3 3 3 3 3
6 9 11 15 18 19 16 14 16 15 15 15 14 13 14 10 8 7 6 5 5 4 4 4 4 4 3 3 2 3 3 4 4 4 3 2 2 2 3 3 3 3 3 3
10 9 14 16 19 17 14 15 14 14 14 13 12 11 11 9 7 5 4 4 4 3 3 4 5 6 4 4 4 5 5 4 3 2 2 2 2 2 2 3 2 2 2 2
12 12 14 16 17 15 14 13 13 12 12 12 11 9 8 6 5 4 3 3 4 4 3 4 4 5 4 3 2 2 3 2 2 2 2 2 2 2 2 2 2 2 2 2
14 14 13 12 12 12 12 10 10 10 10 9 8 7 5 4 4 3 4 4 3 3 3 3 3 3 3 3 3 3 2 2 2 2 2 2 2 2 1 1 1 1 1 1
12 13 12 11 11 10 9 8 8 8 7 7 6 5 4 4 3 3 3 3 3 3 3 3 3 3 3 3 3 3 2 2 2 2 2 1 1 1 1 1 1 1 1 0
11 13 11 10 9 9 8 7 7 6 5 5 4 3 3 2 2 2 3 3 3 3 3 3 3 3 3 3 3 3 2 2 2 2 2 2 1 1 2 1 1 1 1 0
12 11 9 8 7 7 6 5 5 4 3 3 2 2 2 2 2 2 3 3 3 3 3 2 2 2 2 2 2 2 2 2 2 2 2 2 2 1 -1 2 2 1 1 1
9 9 7 8 5 5 4 4 3 3 3 2 2 2 2 2 2 2 2 2 2 2 1 0 -0 -1 -0 0 0 0 0 0 -0 -0 -1 -1 -1 -1 -1 -2 -1 -1 0 0
8 8 7 6 5 4 4 4 3 2 2 1 2 2 2 1 -0 -1 0 1 0 -1 -2 -2 -2 -2 -1 -2 -2 -2 -2 -2 -3 -2 -2 -2 -2 -2 -2 -2 -2 -2 -2 -1
7 6 6 5 4 4 4 3 2 1 1 -0 -1 -0 -0 -1 -1 -2 -1 -2 -3 -2 -3 -3 -4 -4 -3 -4 -4 -4 -5 -5 -5 -5 -5 -4 -4 -3 -3 -2 -2 -2 -2 -3
5 4 4 4 4 4 3 3 2 0 -2 -2 -2 -2 -1 -2 -2 -2 -2 -3 -3 -4 -5 -5 -6 -5 -6 -6 -6 -6 -6 -6 -6 -6 -6 -6 -6 -5 -5 -4 -3 -2 -2 -2
6 5 5 5 4 3 2 0 -1 -2 -2 -2 -2 -2 -2 -2 -3 -3 -4 -4 -4 -5 -6 -7 -7 -7 -7 -7 -7 -7 -8 -8 -8 -8 -8 -7 -8 -7 -6 -5 -5 -4 -3 -3
6 5 5 4 3 1 -0 -2 -2 -2 -2 -2 -2 -3 -3 -3 -3 -4 -5 -6 -7 -7 -8 -8 -9 -9 -9 -10 -10 -10 -10 -10 -10 -10 -10 -10 -9 -9 -9 -8 -5 -4 -3 -3
4 3 2 1 0 -1 -2 -3 -3 -3 -3 -3 -3 -4 -4 -4 -4 -5 -6 -8 -9 -9 -9 -10 -10 -11 -11 -11 -12 -12 -12 -12 -13 -13 -13 -12 -12 -11 -10 -10 -11 -9 -7 -7
1 0 -1 -1 -2 -2 -2 -3 -3 -4 -4 -4 -4 -5 -5 -6 -6 -6 -7 -8 -9 -9 -10 -11 -12 -12 -12 -12 -13 -13 -14 -14 -14 -15 -15 -14 -14 -13 -13 -13 -13 -12 -12 -12
0 -1 -2 -2 -2 -3 -3 -3 -4 -4 -5 -5 -5 -5 -6 -6 -7 -8 -9 -9 -10 -10 -11 -11 -12 -13 -13 -13 -14 -14 -15 -15 -16 -16 -16 -16 -16 -15 -16 -15 -15 -14 -14 -14
-1 -1 -2 -2 -3 -3 -3 -3 -4 -4 -5 -5 -6 -6 -7 -7 -8 -9 -9 -10 -10 -11 -11 -12 -13 -13 -14 -14 -15 -15 -16 -16 -17 -17 -17 -17 -17 -17 -17 -17 -17 -16 -16 -15
-1 -1 -2 -2 -3 -4 -4 -4 -4 -5 -6 -7 -7 -7 -7 -8 -9 -10 -10 -11 -11 -12 -12 -13 -13 -14 -14 -15 -15 -16 -16 -17 -17 -18 -18 -18 -19 -19 -19 -19 -18 -18 -17 -17
-1 -2 -2 -3 -3 -4 -4 -5 -5 -6 -7 -8 -8 -8 -8 -9 -9 -10 -11 -11 -12 -12 -13 -13 -14 -14 -15 -15 -16 -16 -17 -17 -18 -19 -19 -19 -20 -20 -20 -20 -20 -19 -19 -19
-3 -4 -5 -5 -5 -6 -6 -6 -7 -7 -8 -8 -8 -9 -9 -10 -10 -11 -12 -12 -13 -13 -14 -14 -15 -15 -16 -16 -17 -17 -18 -18 -18 -19 -20 -20 -20 -20 -20 -21 -21 -20 -20 -20
-5 -6 -6 -7 -8 -7 -8 -8 -8 -9 -9 -9 -9 -10 -10 -11 -11 -12 -13 -13 -14 -14 -15 -15 -16 -16 -16 -17 -17 -18 -18 -19 -19 -20 -20 -20 -20 -21 -21 -21 -21 -21 -21 -21

GFSNGP_925_temp_042.txt.gz
Temp
18 19 19 19 20 16 17 17 17 18 15 17 18 18 17 16 16 16 15 15 14 13 12 13 14 13 13 13 12 11 10 9 9 9 9 9 9 8 7 6 5 5 4 3
18 17 17 19 18 17 17 18 16 17 17 16 17 16 14 14 14 13 13 13 12 13 13 13 13 14 14 13 13 12 10 9 8 8 8 8 7 6 5 4 4 4 4 3
17 15 17 14 16 17 17 17 17 16 16 15 16 14 14 13 13 12 12 11 10 9 8 9 10 11 11 10 10 9 8 8 8 8 7 6 5 4 3 3 4 3 3 2
11 12 14 18 17 17 16 16 16 17 16 15 14 13 12 13 12 11 9 8 6 6 6 7 8 8 8 8 8 7 7 6 6 5 5 4 4 4 3 3 3 2 2 3
12 12 15 18 16 16 16 16 15 14 13 12 12 12 11 8 7 6 5 4 4 4 5 5 6 6 7 6 6 5 4 4 4 4 4 4 3 3 3 2 2 2 3 3
9 12 13 15 16 16 17 15 14 13 12 12 12 12 11 7 5 4 3 3 3 4 4 5 4 6 5 3 3 3 3 3 4 4 4 4 4 3 2 2 2 2 3 3
6 9 12 14 16 16 16 15 13 13 12 11 13 11 6 4 3 3 3 3 3 3 3 3 3 4 3 3 3 4 4 4 4 4 4 3 3 2 2 2 2 2 2 2
7 9 14 14 16 15 14 13 12 12 11 11 7 5 5 4 3 3 2 2 3 2 3 3 4 4 3 3 3 3 3 3 3 2 2 2 2 2 2 2 1 1 1 2
13 13 14 13 15 14 12 12 12 11 10 9 6 5 4 3 3 2 2 2 2 2 2 3 3 3 2 2 3 3 3 2 2 2 2 2 2 1 1 1 1 1 0 0
14 14 13 12 11 11 12 12 10 10 9 8 5 4 3 3 2 2 2 2 2 2 2 2 2 2 2 2 2 2 2 1 1 1 1 1 0 0 -0 0 -0 -1 -1 -2
11 11 11 11 9 9 7 7 7 6 6 5 4 3 3 2 2 2 2 2 2 2 1 0 1 0 1 1 1 1 0 -0 -0 -1 -1 -1 -1 -1 -1 -1 -1 -2 -2 -2
13 13 13 12 7 7 7 6 6 5 4 4 4 3 2 1 1 1 1 2 1 0 -1 -2 -1 -2 -1 -1 -1 -1 -1 -2 -2 -3 -3 -4 -4 -4 -4 -4 -3 -3 -3 -3
15 11 8 7 5 6 5 4 4 4 3 2 2 2 2 1 1 1 1 -0 -1 -2 -2 -3 -3 -3 -3 -3 -2 -3 -4 -4 -5 -5 -6 -6 -6 -7 -7 -6 -6 -6 -6 -6
7 8 7 7 5 4 4 3 3 2 2 2 1 1 1 -0 -0 -1 -2 -3 -3 -4 -3 -4 -4 -5 -5 -4 -4 -5 -5 -6 -6 -7 -7 -7 -8 -8 -8 -8 -8 -8 -8 -7
6 6 7 4 3 3 2 2 2 1 0 0 0 -0 -1 -2 -2 -3 -3 -3 -4 -4 -5 -5 -6 -7 -6 -5 -6 -6 -7 -8 -8 -8 -8 -9 -9 -9 -9 -9 -9 -10 -10 -9
4 4 4 3 2 2 2 1 1 1 1 0 -0 -1 -2 -3 -3 -3 -3 -3 -4 -6 -7 -7 -7 -8 -7 -7 -8 -8 -9 -9 -9 -10 -10 -11 -11 -11 -11 -11 -11 -11 -11 -12
4 3 3 2 2 2 2 2 2 1 0 -0 -2 -2 -3 -4 -4 -4 -5 -5 -6 -7 -8 -8 -9 -9 -9 -9 -10 -10 -10 -11 -11 -11 -12 -12 -13 -13 -13 -13 -13 -13 -13 -13
5 5 4 3 2 1 0 -0 -1 -1 -1 -2 -2 -3 -3 -4 -4 -5 -7 -7 -7 -8 -9 -9 -9 -10 -11 -11 -11 -12 -12 -12 -12 -13 -13 -14 -14 -15 -15 -15 -16 -15 -15 -15
4 4 3 3 2 0 -1 -1 -1 -2 -3 -3 -3 -4 -4 -5 -6 -7 -7 -7 -8 -8 -10 -10 -10 -11 -11 -12 -12 -13 -13 -14 -14 -14 -15 -16 -16 -16 -17 -17 -17 -17 -17 -17
3 2 1 -0 -1 -1 -2 -2 -3 -3 -4 -3 -4 -5 -6 -6 -6 -7 -7 -9 -9 -9 -10 -10 -11 -12 -12 -13 -13 -14 -14 -15 -15 -16 -16 -17 -17 -17 -18 -18 -18 -18 -18 -18
1 -0 -1 -1 -2 -2 -3 -3 -3 -3 -4 -4 -5 -6 -6 -7 -7 -7 -8 -9 -10 -10 -11 -11 -11 -12 -13 -14 -14 -15 -15 -16 -16 -17 -18 -18 -18 -18 -19 -19 -19 -19 -19 -19
-1 -2 -2 -3 -3 -3 -4 -4 -4 -4 -5 -5 -6 -6 -7 -8 -8 -8 -9 -9 -10 -10 -11 -11 -12 -13 -13 -14 -15 -15 -16 -16 -17 -18 -18 -19 -19 -19 -19 -20 -20 -20 -20 -20
-2 -2 -3 -3 -3 -4 -5 -5 -4 -5 -6 -6 -6 -7 -7 -8 -8 -9 -10 -10 -10 -11 -12 -12 -13 -14 -14 -15 -15 -16 -17 -17 -18 -18 -19 -19 -20 -20 -20 -20 -20 -20 -21 -21
-2 -3 -3 -4 -4 -5 -5 -6 -6 -6 -6 -6 -7 -7 -7 -9 -9 -10 -10 -10 -11 -11 -12 -13 -14 -14 -15 -15 -16 -17 -17 -18 -18 -19 -19 -20 -20 -20 -20 -20 -20 -21 -21 -21
-3 -4 -5 -5 -5 -5 -5 -6 -7 -7 -8 -8 -8 -8 -8 -9 -9 -10 -11 -11 -12 -12 -13 -14 -15 -15 -16 -16 -17 -17 -18 -18 -19 -19 -20 -20 -21 -21 -20 -20 -21 -21 -21 -21
-4 -5 -5 -5 -6 -6 -6 -7 -8 -8 -8 -9 -9 -9 -9 -10 -10 -11 -12 -12 -13 -14 -14 -15 -16 -16 -17 -17 -17 -18 -18 -19 -19 -19 -20 -21 -21 -21 -21 -21 -21 -21 -21 -21
-7 -7 -7 -8 -8 -8 -8 -8 -9 -10 -10 -10 -10 -10 -10 -11 -12 -12 -13 -13 -14 -15 -15 -16 -16 -17 -17 -17 -18 -18 -19 -19 -20 -20 -21 -21 -21 -21 -21 -21 -21 -21 -21 -21

GFSNGP_925_temp_045.txt.gz
Temp
18 19 19 20 20 18 19 19 20 21 18 21 21 21 20 18 17 17 16 16 16 16 16 15 14 14 13 13 13 12 12 10 9 9 8 7 6 6 7 7 6 5 5 5
18 17 18 19 19 18 18 18 18 19 19 20 19 18 17 16 16 16 15 14 13 13 13 13 13 13 12 11 10 10 9 8 8 7 7 7 7 6 6 5 4 5 5 5
18 15 17 16 17 18 18 18 19 19 21 18 18 17 16 15 15 14 13 12 11 10 9 8 9 9 9 8 8 8 7 7 6 6 6 5 5 5 4 4 4 4 4 3
15 13 16 20 17 18 19 18 18 18 18 18 17 15 14 14 14 12 11 10 8 8 7 6 7 6 7 7 7 6 6 6 5 5 4 4 4 3 3 4 4 3 3 2
15 16 17 18 17 18 18 21 18 18 17 16 14 14 12 9 10 9 8 7 6 5 5 5 5 5 5 5 5 5 5 4 4 4 3 3 3 3 3 3 3 2 2 2
12 16 17 18 18 16 18 18 18 16 15 14 14 17 16 9 7 6 6 5 5 4 4 5 4 5 5 4 4 4 4 4 4 3 4 4 4 3 3 2 2 1 2 2
12 15 16 16 16 16 18 20 16 15 15 15 16 15 11 7 6 5 5 4 4 4 4 4 4 4 4 4 4 4 4 3 4 4 3 3 2 2 2 1 1 1 2 2
12 14 17 15 15 18 18 15 15 14 14 14 9 7 7 6 5 5 5 4 4 4 3 3 4 4 4 3 3 3 3 3 2 2 2 2 1 1 1 0 0 0 0 0
17 17 16 15 18 16 14 16 14 14 13 10 8 7 6 5 5 5 4 4 4 4 3 3 3 3 3 2 2 2 1 1 1 1 1 1 0 -0 0 -0 -1 -1 -1 -1
16 16 15 14 14 13 13 14 13 14 13 10 9 7 5 5 4 4 4 4 3 3 2 1 1 0 0 1 2 1 0 -1 -1 -1 -1 -1 -1 -1 -1 -2 -2 -2 -2 -2
14 14 12 14 12 13 11 10 10 10 10 9 7 6 5 5 4 4 3 3 2 2 1 -0 -1 -2 -1 -0 -0 -1 -1 -2 -2 -2 -3 -2 -3 -3 -3 -4 -4 -4 -4 -5
15 16 17 18 15 10 10 10 9 8 7 7 7 5 5 4 3 3 2 2 1 0 -1 -2 -3 -3 -3 -2 -2 -2 -2 -3 -4 -4 -4 -4 -5 -4 -6 -7 -7 -7 -7 -7
16 12 9 7 8 8 8 8 7 7 6 5 5 4 3 3 2 1 1 0 -1 -2 -3 -3 -4 -4 -4 -4 -4 -4 -5 -5 -5 -6 -6 -6 -6 -6 -6 -6 -7 -8 -9 -9
9 10 10 8 9 6 6 5 4 4 4 4 3 3 2 1 0 -0 -1 -2 -3 -3 -4 -4 -5 -6 -6 -6 -6 -6 -6 -7 -7 -7 -7 -8 -8 -8 -8 -8 -8 -8 -9 -10
7 7 8 5 5 4 4 4 3 3 2 2 2 1 1 0 -1 -2 -3 -3 -4 -4 -5 -5 -6 -7 -7 -7 -7 -7 -7 -8 -9 -9 -9 -10 -10 -10 -9 -10 -10 -10 -10 -10
5 5 6 5 4 3 3 3 2 2 2 1 1 0 -1 -2 -2 -3 -4 -4 -4 -5 -6 -7 -7 -8 -8 -8 -8 -8 -9 -10 -10 -10 -10 -11 -11 -11 -11 -11 -11 -12 -12 -12
4 4 3 3 3 3 3 3 2 2 1 0 -1 -2 -3 -3 -4 -4 -5 -6 -6 -7 -8 -8 -8 -9 -9 -9 -9 -10 -10 -11 -12 -11 -12 -12 -13 -13 -13 -13 -13 -13 -14 -14
6 5 4 4 3 2 1 1 1 0 -1 -2 -3 -3 -3 -3 -4 -5 -7 -8 -8 -9 -9 -9 -9 -10 -11 -11 -11 -12 -12 -13 -13 -13 -13 -14 -15 -15 -15 -15 -15 -15 -15 -15
4 3 3 2 2 1 1 0 -1 -2 -3 -3 -3 -4 -4 -5 -5 -6 -7 -8 -8 -8 -10 -10 -10 -11 -12 -13 -13 -13 -14 -14 -14 -15 -15 -16 -16 -17 -16 -17 -17 -17 -17 -17
2 2 1 1 0 -0 -1 -2 -2 -3 -4 -4 -4 -5 -6 -7 -7 -7 -7 -7 -8 -9 -10 -11 -11 -12 -13 -13 -13 -14 -15 -15 -16 -16 -17 -17 -18 -18 -18 -18 -19 -18 -18 -18
0 -0 -1 -1 -2 -2 -2 -3 -3 -4 -4 -4 -4 -6 -6 -8 -7 -8 -8 -8 -10 -10 -11 -11 -12 -13 -13 -14 -14 -15 -15 -16 -17 -17 -18 -19 -19 -19 -19 -20 -20 -20 -19 -19
-1 -2 -2 -3 -3 -3 -4 -4 -4 -5 -5 -5 -6 -7 -7 -8 -8 -9 -8 -9 -10 -11 -11 -12 -12 -13 -13 -14 -15 -15 -16 -16 -17 -18 -19 -19 -20 -20 -20 -21 -21 -21 -21 -21
-2 -2 -3 -4 -4 -4 -5 -6 -6 -5 -6 -7 -7 -8 -7 -8 -8 -8 -9 -11 -11 -11 -12 -12 -13 -13 -14 -14 -15 -16 -16 -17 -17 -18 -19 -19 -21 -21 -21 -22 -21 -22 -22 -22
-3 -3 -4 -4 -4 -4 -5 -6 -6 -7 -7 -7 -7 -7 -8 -9 -10 -10 -10 -11 -11 -12 -12 -13 -14 -14 -15 -15 -16 -16 -17 -17 -18 -18 -19 -20 -21 -21 -21 -21 -21 -21 -21 -22
-4 -4 -4 -4 -5 -6 -7 -7 -7 -7 -8 -8 -9 -9 -8 -9 -9 -11 -11 -11 -12 -12 -13 -14 -14 -15 -15 -16 -16 -17 -17 -18 -19 -19 -19 -20 -21 -21 -21 -21 -21 -21 -21 -21
-6 -6 -6 -6 -6 -7 -7 -7 -8 -8 -9 -9 -10 -9 -9 -10 -10 -11 -12 -12 -13 -13 -14 -15 -15 -16 -16 -17 -17 -18 -18 -18 -19 -20 -20 -20 -21 -21 -22 -22 -22 -21 -22 -22
-8 -8 -8 -9 -9 -9 -8 -9 -9 -10 -10 -10 -10 -10 -11 -11 -12 -12 -13 -13 -14 -14 -15 -15 -16 -17 -17 -18 -18 -18 -19 -19 -20 -20 -20 -21 -21 -22 -22 -22 -22 -22 -22 -22

GFSNGP_925_temp_048.txt.gz
Temp
24 25 25 25 25 24 24 24 24 24 25 26 27 27 27 25 23 23 23 22 22 23 22 21 20 18 17 16 14 14 13 11 10 9 8 8 9 8 7 6 5 4 5 5
22 24 23 24 25 25 24 25 25 25 25 26 27 26 24 23 22 22 21 20 20 20 20 18 17 17 15 14 13 13 12 11 9 9 9 8 6 5 5 5 4 5 4 5
21 22 22 18 22 24 24 24 24 24 25 27 25 24 25 23 22 20 19 18 18 17 16 16 15 15 14 13 12 12 11 10 8 7 6 6 6 6 5 4 4 5 5 5
20 15 17 24 23 25 25 25 25 25 26 26 25 24 22 22 20 18 17 16 16 15 14 13 13 12 12 12 11 11 10 8 7 7 6 6 6 5 4 5 5 4 4 3
18 20 23 21 21 22 23 24 26 25 26 25 22 19 17 18 19 17 16 15 14 13 12 12 11 11 11 10 10 9 9 8 7 7 6 6 5 4 4 4 4 3 4 4
17 20 19 24 25 24 23 23 26 25 24 24 20 20 22 15 14 13 13 12 11 11 11 10 10 10 10 10 9 8 8 7 7 6 6 5 4 3 3 3 4 4 4 4
19 19 22 23 22 22 21 23 25 25 24 21 20 22 19 15 13 12 11 11 10 11 10 9 9 9 9 8 8 7 7 6 5 4 3 3 3 4 4 4 4 3 2 3
19 17 18 21 20 23 25 22 23 22 22 20 20 16 14 13 12 11 11 9 9 9 9 9 9 9 8 7 7 6 5 3 3 3 4 4 4 4 4 4 3 3 2 2
20 21 23 21 24 23 23 24 21 22 21 20 15 14 13 12 11 11 10 10 9 8 8 8 8 8 7 6 5 5 4 4 3 3 3 3 3 3 3 3 2 2 1 1
18 23 22 21 22 21 21 22 21 21 20 17 15 14 13 12 11 11 10 9 8 7 7 6 5 5 5 4 4 4 3 3 3 2 2 2 2 2 2 0 -0 -0 -1 -1
20 22 18 19 20 22 19 17 17 19 19 17 15 13 12 11 10 10 9 8 7 6 5 4 3 2 3 3 3 3 2 2 1 1 1 1 0 -1 -2 -3 -5 -4 -4 -4
20 23 21 24 23 21 19 17 17 17 16 16 14 13 12 11 10 9 8 7 6 5 3 2 1 1 1 2 2 2 1 0 -2 -1 -1 -1 -1 -1 -4 -5 -6 -7 -7 -8
21 17 16 14 14 18 18 17 16 15 16 14 13 12 11 10 8 7 6 5 4 3 1 0 0 0 -1 -1 -1 -1 -1 -2 -2 -2 -2 -3 -3 -3 -2 -4 -6 -7 -8 -9
14 13 15 13 15 11 13 12 11 13 12 12 11 10 8 7 5 5 5 3 2 1 -0 -0 -1 -2 -2 -2 -3 -3 -4 -5 -3 -3 -4 -4 -5 -5 -5 -5 -5 -6 -7 -9
13 11 12 11 10 9 9 10 10 10 9 9 8 7 6 5 4 3 1 0 -0 -0 -1 -1 -2 -3 -3 -4 -3 -4 -4 -5 -5 -6 -7 -7 -7 -7 -6 -7 -7 -7 -7 -8
10 10 10 10 9 8 8 8 8 6 6 6 5 5 4 2 1 0 -1 -2 -2 -2 -2 -5 -5 -5 -5 -4 -4 -5 -6 -8 -8 -7 -7 -7 -8 -8 -8 -8 -8 -8 -9 -9
10 9 8 8 8 7 7 7 6 5 4 4 3 1 0 -1 -2 -4 -5 -6 -6 -7 -7 -7 -6 -6 -7 -6 -5 -6 -6 -8 -10 -8 -8 -9 -9 -9 -9 -9 -10 -10 -10 -11
11 10 10 9 7 6 4 4 4 2 1 -0 -1 -2 -3 -3 -4 -5 -6 -7 -8 -8 -8 -8 -8 -8 -8 -8 -8 -8 -9 -9 -9 -10 -10 -11 -12 -11 -11 -11 -11 -11 -12 -12
8 8 7 7 6 5 3 2 0 -1 -2 -2 -2 -3 -4 -4 -5 -6 -7 -8 -8 -8 -8 -9 -10 -9 -10 -11 -10 -10 -11 -11 -11 -11 -12 -13 -12 -12 -12 -13 -13 -13 -13 -13
3 3 2 2 1 0 -1 -2 -2 -2 -3 -3 -4 -4 -5 -6 -6 -7 -7 -6 -6 -7 -9 -10 -10 -10 -11 -12 -12 -12 -12 -12 -12 -13 -13 -13 -13 -14 -14 -14 -15 -14 -14 -14
-0 -0 -1 -1 -1 -2 -2 -2 -2 -3 -3 -4 -4 -5 -6 -7 -7 -7 -7 -7 -9 -9 -10 -11 -10 -11 -11 -12 -12 -13 -13 -13 -13 -13 -14 -14 -14 -14 -15 -15 -15 -15 -15 -16
-1 -1 -1 -1 -2 -2 -3 -3 -4 -4 -5 -5 -6 -7 -7 -7 -8 -8 -7 -7 -9 -10 -10 -10 -11 -12 -13 -13 -13 -13 -14 -14 -14 -14 -14 -15 -15 -16 -16 -16 -17 -17 -17 -17
-1 -2 -2 -3 -3 -4 -5 -5 -5 -5 -6 -6 -6 -6 -6 -6 -6 -6 -7 -9 -10 -11 -10 -11 -12 -13 -14 -14 -14 -14 -14 -15 -15 -15 -16 -16 -16 -17 -17 -17 -18 -19 -18 -18
-3 -3 -3 -3 -3 -3 -3 -5 -6 -6 -7 -7 -7 -7 -7 -7 -8 -9 -9 -10 -11 -11 -11 -13 -14 -14 -14 -14 -15 -15 -15 -15 -15 -16 -16 -17 -17 -17 -18 -18 -19 -19 -20 -20
-3 -3 -4 -4 -4 -5 -5 -6 -6 -6 -6 -7 -7 -8 -8 -8 -7 -9 -10 -12 -12 -12 -12 -14 -14 -15 -15 -15 -15 -16 -16 -16 -16 -17 -17 -17 -18 -18 -19 -19 -20 -20 -21 -21
-5 -5 -6 -5 -5 -6 -6 -6 -7 -7 -7 -7 -8 -9 -9 -10 -11 -11 -12 -13 -13 -14 -13 -14 -15 -16 -16 -16 -16 -16 -17 -17 -17 -17 -18 -19 -19 -19 -20 -20 -21 -21 -22 -22
-8 -7 -7 -8 -8 -8 -8 -8 -8 -8 -8 -8 -8 -10 -10 -11 -12 -12 -13 -13 -14 -14 -15 -15 -15 -16 -16 -17 -17 -17 -17 -17 -18 -19 -20 -19 -20 -20 -21 -21 -22 -23 -23 -23